GFSNW_925_thetae_036.txt.gz
Theta_e
303 302 302 302 301 299 303 309 315 308 308 317 317 318 315 312 314 313 313 313 314 314 314 315 315 316 315 312 312 314 312 314 318 318 313 313 315 317 317 320 316 312 312 311
302 302 301 301 300 300 302 309 312 309 310 318 315 314 314 314 314 314 313 313 313 313 314 315 314 314 312 312 313 313 312 315 316 315 314 312 314 313 315 312 314 317 313 310
302 301 301 301 299 300 302 309 313 315 315 314 316 315 315 316 314 313 312 312 312 313 313 312 314 314 313 311 312 310 311 313 314 313 314 315 314 314 313 312 313 314 313 311
302 301 300 301 296 302 303 307 308 307 315 315 314 315 315 315 316 314 312 313 313 313 313 312 313 313 312 312 311 312 313 312 310 311 313 314 315 314 314 311 314 312 313 310
301 300 300 300 296 299 301 304 305 305 309 311 312 312 315 315 315 314 313 313 313 312 313 312 313 313 312 312 311 312 312 312 311 310 312 312 312 313 312 313 312 312 312 311
300 300 300 300 297 297 297 297 301 304 309 312 312 313 313 313 315 314 314 315 315 313 314 313 312 311 310 311 312 311 312 310 309 312 311 311 311 311 312 312 311 311 312 310
300 300 300 300 299 297 297 296 298 303 309 308 310 310 310 312 312 314 314 315 315 311 310 310 311 311 312 311 311 310 312 313 312 312 311 312 313 311 311 311 312 310 310 310
300 300 299 299 300 298 297 296 297 299 301 299 303 304 307 309 311 312 314 315 313 310 312 314 313 314 312 312 312 311 310 312 315 312 312 313 311 311 311 312 312 311 310 310
299 299 299 299 299 298 299 297 296 297 298 298 298 299 300 307 309 311 313 313 312 313 315 315 315 317 313 315 314 312 311 311 313 314 313 315 317 310 311 311 318 312 310 310
298 299 299 298 298 298 298 298 296 297 298 297 297 300 303 303 306 309 311 311 313 313 315 315 315 315 311 313 312 314 314 313 312 314 313 311 315 313 312 320 318 311 309 310
298 299 299 299 299 298 299 299 296 296 297 297 298 297 297 297 298 301 303 309 312 313 315 314 315 314 312 311 311 311 311 313 314 313 313 311 313 313 316 314 312 312 313 313
298 299 298 298 298 299 300 298 297 296 297 297 296 296 296 296 296 296 298 303 305 308 312 312 312 312 310 311 313 309 312 310 310 310 310 310 310 311 311 312 312 312 312 310
299 298 298 298 297 298 299 298 297 297 297 297 297 297 296 296 295 295 296 298 300 300 297 304 312 315 311 311 311 311 310 309 311 311 311 310 308 310 311 311 310 310 309 308
299 298 298 298 298 298 297 297 297 297 297 296 296 295 295 295 295 295 295 296 295 297 297 301 308 313 309 310 310 312 311 310 310 311 310 312 310 309 309 309 309 309 309 309
299 298 298 298 298 297 296 297 296 296 297 297 297 296 295 294 294 295 295 295 296 296 297 299 302 305 309 310 310 311 310 311 311 311 310 309 311 309 310 309 310 307 307 307
298 298 298 298 297 296 298 298 295 295 295 296 296 296 296 294 294 295 295 295 296 296 297 297 298 301 304 309 310 309 308 309 309 310 311 310 310 309 308 309 307 306 305 304
298 298 298 297 294 297 297 296 295 294 294 295 296 297 296 294 296 297 296 296 296 297 297 297 296 297 303 306 308 310 309 308 308 309 309 311 309 308 304 304 303 303 303 303
298 297 296 294 296 296 297 294 295 294 294 294 296 297 298 297 300 299 297 297 297 296 296 296 297 297 298 301 306 309 309 309 308 306 303 303 302 302 303 302 302 302 301 301
296 294 295 296 297 297 295 293 294 295 295 296 297 298 302 299 301 301 297 298 296 295 296 296 296 298 301 301 302 306 306 308 307 302 302 302 302 302 302 302 301 301 301 301
295 295 296 298 295 292 293 295 296 295 295 296 296 298 299 300 302 303 301 299 301 300 298 298 299 300 300 303 304 303 302 301 302 302 300 297 298 301 300 300 300 300 300 299
296 296 295 294 294 295 297 298 299 299 299 297 297 298 299 299 302 303 303 303 303 306 305 303 308 309 306 303 300 298 298 298 298 298 299 298 299 299 298 298 299 299 297 296
294 293 294 294 296 297 297 298 300 301 303 301 301 299 297 299 300 301 303 304 304 309 303 307 312 305 300 300 297 296 296 297 298 298 298 298 298 296 296 297 297 297 296 294
294 294 292 295 295 294 296 297 297 299 301 299 298 297 297 298 301 303 305 308 309 303 308 311 307 300 298 297 296 295 295 296 296 295 296 296 295 295 295 296 295 295 295 294
293 291 289 295 296 298 298 298 297 297 296 297 296 297 297 299 301 304 307 308 305 309 310 309 300 299 297 296 296 295 295 295 294 294 294 294 293 293 293 293 292 294 294 294
293 291 293 292 296 294 294 292 292 294 295 295 296 297 297 299 302 303 305 307 306 308 307 305 300 297 295 295 295 293 293 292 292 293 292 291 291 291 291 290 290 289 291 293
290 290 292 294 291 293 292 291 291 293 294 293 296 298 300 302 303 306 306 309 309 307 302 300 297 296 295 293 292 290 289 289 290 291 291 290 290 290 289 290 289 288 288 289
291 290 292 292 291 291 292 293 293 294 292 293 296 297 299 296 302 306 305 307 304 302 300 296 295 295 292 291 290 289 288 288 288 289 289 289 288 287 286 285 285 288 288 288

GFSNW_925_thetae_039.txt.gz
Theta_e
303 302 302 302 301 301 301 303 313 307 307 310 307 306 313 312 314 312 313 312 313 312 313 313 313 314 313 311 312 315 313 314 317 318 316 315 315 315 313 314 314 308 309 311
302 301 301 301 301 301 301 301 305 307 308 316 309 312 314 314 314 313 312 312 312 312 312 314 312 312 311 310 311 312 312 313 315 316 315 313 315 315 316 312 312 313 309 308
302 301 301 301 299 301 303 304 310 309 307 311 315 313 313 315 312 313 311 311 311 312 312 311 313 312 311 310 310 310 310 312 310 312 310 312 312 314 316 315 316 314 314 310
301 301 301 301 296 300 304 301 307 306 311 310 310 313 315 315 315 313 311 312 312 312 312 312 312 312 311 311 310 311 310 307 307 311 312 312 312 313 312 310 312 311 312 309
301 300 300 301 297 296 298 302 302 303 302 307 310 311 315 315 314 313 312 314 312 310 315 312 312 311 310 310 310 310 309 307 306 304 311 311 311 311 311 312 311 311 311 311
300 300 300 300 299 295 295 296 297 301 306 306 310 312 312 314 312 313 313 313 314 313 312 311 310 308 308 308 309 309 310 305 302 306 311 310 309 310 310 311 311 311 312 310
300 300 300 300 298 298 296 296 296 298 303 299 303 304 307 309 309 312 312 313 313 310 308 308 309 308 309 309 309 307 310 309 302 302 307 308 307 309 309 310 311 309 309 308
300 299 299 299 299 298 297 296 296 295 298 297 298 299 300 303 307 310 313 313 311 309 311 311 312 313 312 311 310 310 309 309 307 308 307 309 311 310 310 310 311 309 309 308
299 299 299 299 299 298 298 298 295 295 296 296 296 297 299 303 304 310 313 311 310 311 312 313 315 316 312 314 313 311 309 310 309 313 311 314 315 310 309 310 313 311 309 308
298 300 299 299 299 298 299 298 296 296 296 297 297 297 300 298 298 303 307 305 309 310 310 312 314 313 310 312 312 312 313 311 311 314 313 310 309 309 311 317 316 309 308 308
299 299 298 298 298 298 298 298 297 296 293 294 296 296 295 295 295 298 299 304 309 311 312 310 310 311 310 310 308 310 309 309 310 310 312 310 312 312 315 313 311 311 310 310
299 299 298 298 298 298 298 298 297 296 295 294 296 296 296 296 296 295 294 298 304 304 310 310 308 311 306 307 311 307 310 308 308 308 309 307 310 311 311 309 310 311 311 309
300 299 298 298 298 299 298 297 297 297 295 293 294 295 295 296 295 296 295 297 298 299 297 303 308 312 309 309 307 309 308 306 308 309 309 309 307 309 310 310 310 309 308 307
301 298 297 298 298 297 297 298 297 297 295 293 293 295 295 295 295 295 295 295 296 296 296 298 304 309 306 308 308 309 308 307 308 308 308 309 308 308 308 308 307 307 307 307
299 298 298 298 299 296 297 294 294 296 295 295 294 295 296 294 295 295 295 295 295 295 295 295 298 301 303 304 306 307 308 309 309 309 307 307 307 306 307 307 308 307 306 307
298 298 298 298 296 296 297 295 295 295 295 295 296 295 295 294 294 295 295 295 295 295 296 295 295 297 302 303 304 303 305 306 306 308 308 307 308 306 307 306 304 304 304 304
298 297 297 296 295 296 295 295 294 294 294 294 294 295 296 294 296 296 295 295 295 295 296 296 295 296 298 300 300 301 303 306 305 306 307 309 308 307 303 302 301 302 302 301
296 295 294 294 296 296 295 294 294 294 294 293 294 296 297 297 299 299 295 296 295 295 295 295 295 295 294 296 297 298 299 304 306 303 303 305 301 300 300 300 300 301 300 300
295 294 296 296 296 295 295 293 294 294 294 293 293 296 298 299 300 300 297 296 295 295 296 295 294 295 295 297 297 296 303 303 302 302 301 300 300 300 301 301 300 300 299 298
296 295 296 294 294 293 293 295 296 294 295 295 294 296 297 299 300 301 301 298 297 298 295 296 296 296 297 296 298 304 303 302 301 302 301 297 296 299 300 299 298 298 298 297
295 295 294 294 294 295 295 297 296 297 296 296 295 297 299 297 300 301 302 302 299 305 301 300 303 307 303 299 297 297 297 299 298 298 298 298 298 298 297 297 297 298 297 294
294 293 293 294 295 291 288 286 294 295 297 298 299 297 296 297 298 301 301 303 303 304 302 304 309 306 300 299 296 296 296 297 298 297 298 297 296 296 296 297 297 296 296 294
294 293 288 290 287 289 287 290 290 290 294 291 292 293 295 297 299 302 303 306 308 302 306 310 307 299 297 296 296 295 293 295 296 295 295 295 295 295 295 296 294 295 295 294
288 284 288 288 287 287 289 289 287 291 289 289 291 294 294 296 299 303 305 307 305 305 305 306 303 298 295 295 295 295 294 294 294 294 293 293 293 292 291 290 290 291 292 293
288 286 289 285 289 283 284 288 285 287 288 289 289 291 296 297 299 301 304 307 306 307 307 304 300 297 295 295 294 293 291 291 291 292 291 291 290 290 289 289 289 289 289 291
284 284 287 287 284 283 283 281 284 286 290 287 290 292 296 299 300 302 306 308 307 303 302 301 298 295 295 292 291 289 288 289 290 290 290 290 289 288 288 288 286 288 288 288
291 285 287 285 282 286 285 290 290 291 288 287 288 289 291 291 298 298 302 304 301 299 298 296 295 295 294 292 290 289 288 288 288 288 288 288 287 286 285 284 284 287 288 288

GFSNW_925_thetae_042.txt.gz
Theta_e
302 302 302 302 301 302 302 301 307 306 306 311 303 304 312 312 313 311 312 311 312 312 312 312 313 313 313 313 312 316 313 314 317 318 316 315 315 314 314 319 314 307 307 309
301 301 302 302 301 301 302 303 303 306 308 306 307 310 313 313 313 312 311 311 311 311 311 313 312 311 309 312 312 314 311 312 313 316 314 314 318 316 314 311 309 307 308 307
301 301 301 300 298 300 303 302 308 305 307 308 312 312 312 314 311 312 311 311 310 311 310 310 312 312 311 310 309 310 311 310 308 313 312 314 315 316 314 313 310 313 310 309
302 301 301 299 297 298 303 298 306 305 309 311 309 311 314 315 315 311 311 312 311 311 311 311 312 311 311 310 310 310 308 308 306 310 312 311 311 314 315 315 316 318 315 314
301 301 301 298 297 294 296 298 301 301 303 305 308 310 313 315 314 312 313 314 313 311 313 311 311 310 309 310 309 310 307 307 304 303 310 311 311 310 314 316 316 315 310 310
300 300 300 300 297 296 294 295 296 300 304 302 310 310 311 312 310 312 312 314 313 311 310 309 309 307 306 307 308 308 309 304 300 303 310 309 309 309 310 311 311 312 312 311
300 299 300 300 299 297 296 295 294 295 299 300 301 300 303 302 306 310 310 312 313 310 308 308 308 306 306 307 308 306 308 305 300 301 305 306 306 308 307 310 310 310 309 308
299 300 300 300 298 298 297 295 295 293 296 295 296 297 299 301 304 309 312 312 311 308 310 309 310 310 311 310 308 307 307 307 305 306 304 307 310 309 308 308 308 307 309 307
299 299 299 299 298 298 298 297 296 293 294 295 295 296 300 300 301 307 311 308 304 308 310 311 313 311 311 313 312 307 309 309 307 310 311 313 311 310 307 308 311 310 308 307
299 298 298 299 298 298 298 298 297 294 294 295 296 296 297 296 295 297 304 299 305 307 308 312 311 307 310 312 311 311 313 311 313 311 314 309 307 309 309 314 312 310 307 307
299 298 298 299 298 298 298 298 297 295 292 292 295 295 295 295 295 296 297 303 307 309 310 309 308 309 308 308 307 308 308 308 310 311 312 309 308 312 314 312 310 310 307 305
300 298 298 299 299 298 297 297 296 296 293 293 295 296 296 296 295 294 293 295 303 302 308 309 309 312 307 306 310 305 310 307 307 308 309 305 307 309 309 308 310 311 311 309
301 298 298 298 299 298 297 296 296 297 295 292 293 294 294 295 295 295 294 295 295 298 297 301 306 309 307 309 305 307 307 304 307 308 307 305 306 307 309 309 310 310 308 308
299 297 297 298 299 296 296 296 296 296 294 294 293 295 295 294 295 295 295 295 295 295 295 295 300 307 304 306 306 306 306 306 306 306 306 306 306 305 308 309 308 307 306 306
298 297 297 298 297 296 295 294 295 295 293 293 294 295 295 294 295 295 295 295 295 295 294 295 297 299 300 300 303 304 306 308 307 308 306 306 306 306 306 306 306 305 306 307
297 297 297 297 295 297 297 295 294 294 294 292 296 295 295 295 294 294 295 295 295 295 295 295 295 295 299 299 301 301 299 302 305 306 304 305 304 306 305 306 305 304 303 304
297 297 295 295 296 295 294 293 294 294 294 291 291 294 295 294 294 295 295 295 295 295 295 295 294 294 297 299 298 296 296 296 297 299 302 308 307 307 303 302 301 303 301 301
296 295 295 296 295 295 294 293 294 294 293 292 287 294 297 297 298 300 296 296 296 295 295 295 296 294 294 296 295 294 295 295 298 301 301 301 303 299 300 299 300 300 300 299
294 295 296 296 295 293 293 293 294 294 293 288 287 292 294 297 299 300 298 296 297 294 295 295 294 295 294 297 295 295 296 299 302 300 299 300 302 301 300 299 299 300 299 298
295 295 295 291 294 293 294 295 295 295 294 289 288 290 292 296 297 298 302 298 296 297 296 294 296 295 295 298 298 296 299 302 301 300 299 298 299 300 300 298 297 298 297 296
295 293 290 294 295 295 293 297 296 296 291 296 297 294 296 294 298 300 299 302 299 301 301 298 296 302 304 300 298 296 295 297 300 300 299 297 298 298 298 297 297 297 297 294
294 293 293 294 293 288 288 286 291 293 293 296 298 294 294 293 296 301 301 301 302 303 300 301 305 304 299 296 297 296 295 296 298 298 298 297 296 296 297 297 297 296 296 295
293 291 284 288 286 288 285 287 288 287 292 288 289 291 292 293 297 301 303 304 306 301 305 308 304 302 299 296 295 296 293 292 294 295 293 295 295 295 295 295 293 294 294 294
287 283 287 286 285 285 286 286 285 288 291 288 291 293 291 293 294 300 304 304 305 306 306 303 300 301 299 296 295 294 293 294 293 293 292 291 291 292 290 289 289 290 291 292
289 285 291 286 287 281 284 289 285 285 286 287 289 294 294 291 295 296 301 305 307 301 300 299 299 300 297 295 293 291 289 289 291 291 291 291 290 290 289 289 289 289 289 289
284 283 287 287 284 281 280 280 283 284 289 285 293 294 294 296 298 298 298 303 298 298 298 298 298 296 296 295 293 291 288 288 289 290 290 290 288 287 286 286 285 288 288 287
289 286 287 285 283 285 284 288 289 290 287 286 284 287 289 293 296 296 296 296 292 294 296 293 293 293 294 294 292 291 290 288 288 288 289 289 288 287 285 284 284 286 286 287

GFSNW_925_thetae_045.txt.gz
Theta_e
302 302 302 302 302 302 303 301 305 305 305 311 306 301 310 311 312 311 311 310 311 311 311 312 312 315 313 313 311 313 311 312 314 318 316 315 314 313 312 311 311 306 305 309
302 302 302 302 301 300 302 302 302 305 306 305 305 307 312 312 312 311 310 310 310 310 310 312 311 311 310 313 313 312 311 310 317 316 317 314 317 315 313 310 308 307 310 312
301 301 301 301 301 298 303 300 303 302 307 306 310 310 312 313 311 311 310 310 309 310 309 309 311 311 310 310 311 311 310 310 309 311 311 315 317 317 314 312 311 315 312 312
301 301 299 299 299 298 302 297 303 303 303 309 308 310 312 314 313 310 309 311 310 310 310 311 311 310 310 309 310 309 309 312 306 309 311 311 311 315 316 315 316 314 316 310
299 299 300 299 297 295 297 296 299 300 303 304 308 310 312 313 313 311 312 314 311 310 311 310 311 309 309 310 308 309 306 306 303 303 309 310 311 310 314 315 315 315 313 313
298 299 300 300 298 296 294 294 295 298 300 301 310 305 310 309 309 311 311 313 311 310 309 308 309 306 305 307 307 308 307 303 301 303 306 307 308 307 308 312 314 314 315 315
299 298 299 300 299 297 295 294 293 295 297 301 298 298 300 302 304 309 308 312 311 310 307 307 307 305 304 306 306 305 305 303 298 300 304 307 306 305 306 308 310 311 311 309
299 298 298 298 300 298 297 295 293 292 295 294 295 298 301 302 303 306 311 310 307 306 308 308 309 308 310 309 307 307 305 305 304 304 304 305 308 308 308 307 308 306 309 309
298 298 298 297 298 298 298 296 295 292 293 295 295 295 298 298 299 305 306 303 298 306 309 309 311 310 309 311 311 307 309 308 306 308 309 311 306 310 306 307 309 308 305 306
298 297 298 298 298 298 298 297 296 294 294 294 294 295 295 294 295 298 301 297 302 304 307 311 310 307 309 312 310 311 312 311 311 312 314 309 305 306 307 312 309 309 308 305
298 298 298 298 298 297 297 297 295 295 291 292 294 294 295 294 294 297 296 301 301 306 308 308 307 308 306 307 307 308 309 308 310 311 314 310 305 310 312 308 308 309 308 304
299 298 298 298 298 297 296 296 296 296 292 293 295 295 295 295 295 294 293 294 302 301 306 306 309 310 307 304 308 304 308 306 307 308 308 306 305 309 308 307 308 309 309 307
298 297 297 298 298 296 296 296 296 295 291 291 292 293 295 295 295 295 294 294 294 297 296 299 305 307 305 307 305 305 305 303 306 307 307 304 304 304 306 308 308 309 308 308
298 297 298 298 297 296 294 295 295 295 292 291 293 295 295 294 295 295 295 295 295 294 293 294 297 304 302 304 304 306 305 305 305 304 304 304 304 304 304 306 308 308 306 307
297 297 297 297 296 295 294 294 294 294 292 293 292 294 295 294 294 294 294 295 294 294 294 295 296 297 299 298 300 303 302 302 305 306 303 303 304 303 304 305 306 305 306 306
297 297 297 295 296 296 296 293 294 294 294 289 292 293 294 295 294 294 295 295 294 295 296 296 295 294 297 296 299 299 299 296 298 298 296 300 300 303 303 303 305 304 304 304
297 296 295 296 295 295 293 293 294 294 293 290 290 291 294 294 294 295 294 294 295 295 295 296 294 294 296 298 298 297 295 294 294 294 296 299 301 302 299 301 303 303 301 300
296 295 295 295 295 294 293 294 294 294 293 289 284 289 293 297 296 299 296 296 295 295 295 294 295 295 294 296 295 295 295 294 295 297 299 299 299 299 300 299 299 300 299 298
295 295 295 295 293 292 292 294 295 294 292 287 285 289 291 293 295 298 298 295 296 294 296 295 294 295 295 298 298 297 299 297 297 301 298 298 300 300 300 300 300 299 298 297
296 296 294 291 293 294 295 295 293 290 294 288 287 290 290 293 293 294 301 297 297 297 296 294 296 296 296 300 299 298 298 296 297 300 300 299 297 298 300 299 298 298 297 295
295 292 289 293 294 294 292 290 292 292 290 295 296 296 296 292 296 298 298 301 299 299 299 297 298 302 301 300 297 295 296 295 296 297 299 297 297 297 299 298 297 297 296 294
294 293 293 294 290 286 287 284 288 291 293 293 294 293 292 292 296 300 301 300 301 303 297 300 303 298 298 300 297 295 295 295 294 294 296 296 296 296 297 297 297 296 296 295
292 290 284 289 285 288 284 286 285 287 287 288 288 290 290 292 295 299 302 303 305 299 302 305 299 298 299 299 297 295 293 293 293 293 293 292 292 292 291 292 290 292 293 293
287 285 287 286 285 285 285 285 285 287 292 287 290 292 292 292 292 298 302 303 303 304 300 300 297 297 299 298 296 293 291 289 291 292 291 291 291 290 290 289 289 289 289 290
286 287 290 285 286 283 285 287 286 284 287 287 289 289 293 293 296 296 300 301 300 293 295 292 295 297 297 296 296 293 291 288 288 290 291 291 290 289 289 289 286 288 288 288
282 283 286 285 283 279 282 286 283 283 288 287 291 290 294 295 296 296 297 300 300 290 288 290 292 295 294 293 294 292 291 289 288 288 289 289 288 288 286 285 284 286 287 287
282 285 287 284 283 284 284 287 288 289 286 285 283 286 289 292 294 295 296 299 290 287 288 287 291 292 292 292 292 292 291 291 288 288 289 290 289 288 288 287 286 284 285 285

GFSNW_925_thetae_048.txt.gz
Theta_e
302 302 302 302 302 299 303 300 308 305 304 310 307 300 307 311 311 310 311 309 310 310 314 315 311 313 314 312 311 313 310 310 317 319 315 313 312 312 310 309 310 305 305 309
302 302 302 301 299 297 302 300 304 305 305 310 304 305 311 311 310 310 309 310 309 308 309 312 311 311 309 312 311 312 311 312 315 315 315 314 317 315 312 309 306 306 310 313
300 300 300 299 297 299 303 298 302 303 307 306 309 310 311 313 310 310 309 309 308 308 309 307 310 310 311 311 311 313 310 309 308 311 310 312 315 316 314 312 317 317 314 313
298 300 298 298 297 299 301 296 302 301 302 306 306 309 311 313 312 309 308 310 309 309 310 310 310 309 309 309 313 311 310 307 306 308 309 311 312 312 315 316 315 316 316 314
298 299 298 298 298 296 297 296 299 298 300 301 306 305 310 312 312 311 312 313 310 309 310 310 310 309 308 309 308 308 305 307 303 304 308 310 311 309 312 314 315 315 314 315
299 299 299 298 298 297 293 293 294 296 297 300 309 302 306 304 306 310 311 313 310 309 310 308 307 306 304 306 307 307 307 302 300 303 305 307 307 308 308 311 312 313 316 314
298 299 299 298 297 297 296 294 292 295 297 296 298 299 301 302 303 309 308 310 310 310 306 307 305 303 304 305 304 304 304 302 299 300 303 304 305 304 305 307 308 310 311 312
298 298 298 298 297 297 296 295 293 291 295 293 295 298 299 301 301 305 311 306 303 299 307 307 309 307 310 309 306 307 303 303 302 304 303 304 306 307 307 307 307 305 308 309
297 298 297 298 298 297 297 295 295 291 293 295 294 295 296 296 297 305 304 301 297 304 307 308 310 309 309 311 310 307 307 306 306 306 308 310 304 309 305 305 308 306 306 305
297 298 298 298 297 297 296 296 295 293 293 293 293 293 294 293 294 297 299 297 301 302 306 310 310 307 307 311 310 310 311 311 309 308 310 308 305 305 305 312 307 308 308 306
298 298 298 297 297 296 296 296 295 294 291 292 293 294 294 293 292 295 295 300 300 303 306 308 306 307 305 305 306 307 309 307 308 309 311 306 304 309 311 307 307 308 308 307
298 298 298 298 297 296 295 295 296 295 292 293 294 294 294 295 294 293 292 295 301 299 306 305 305 306 306 302 307 303 307 305 307 306 306 304 304 307 306 306 306 307 308 307
298 298 298 298 296 295 294 295 295 294 290 291 292 293 294 295 294 295 293 294 294 297 295 299 304 306 304 305 304 304 304 302 306 306 305 303 303 302 302 301 303 305 306 307
298 299 298 297 295 294 294 294 294 294 291 293 293 294 295 294 294 294 295 294 294 293 292 293 297 302 300 302 301 303 304 303 303 303 302 300 303 301 299 299 302 303 304 306
299 299 297 296 294 294 294 294 294 294 292 294 293 293 294 294 294 294 294 294 294 293 294 294 296 294 296 296 298 299 298 299 300 301 299 297 297 298 296 301 302 302 303 304
298 298 297 296 294 294 296 292 294 294 294 290 293 292 293 294 293 294 294 294 293 294 295 295 295 294 297 297 298 297 297 294 295 296 294 294 294 296 297 300 300 300 302 302
298 296 296 297 296 295 293 293 294 294 294 290 291 290 292 295 295 294 293 294 292 293 294 295 294 294 297 299 298 296 295 297 298 297 295 297 297 299 298 298 299 300 302 301
296 295 294 294 294 294 294 294 294 294 292 288 284 286 292 295 295 298 296 296 295 293 294 294 296 295 294 296 295 297 298 298 297 296 296 297 298 297 298 299 298 298 298 297
296 295 295 294 293 292 293 295 294 294 292 288 286 291 288 291 293 296 298 296 295 293 295 295 295 295 298 301 300 299 299 299 297 296 297 298 299 299 299 298 299 299 299 298
296 296 293 291 293 294 295 294 291 290 289 288 286 291 290 292 292 295 298 297 298 294 296 294 297 298 296 296 297 299 296 295 294 296 296 297 298 297 296 296 299 298 297 296
295 292 291 293 294 294 290 288 289 289 289 292 290 288 289 291 289 292 297 299 299 296 299 298 299 299 299 298 299 297 295 294 293 294 295 296 296 295 295 295 298 297 297 295
295 293 294 294 289 287 287 282 287 290 291 291 291 292 291 291 292 299 297 299 299 299 296 299 300 296 296 298 298 297 293 292 292 292 292 292 293 292 292 294 293 292 293 293
293 291 287 289 285 288 284 287 285 286 287 288 289 286 290 291 292 294 299 303 303 298 301 299 295 295 295 296 297 296 294 291 290 291 291 291 291 291 290 291 289 289 290 291
290 289 289 287 287 286 285 286 285 286 292 288 290 288 291 291 292 297 300 299 301 301 296 295 289 292 293 294 294 295 294 292 289 288 290 291 291 290 290 289 288 287 288 288
287 288 290 287 287 284 284 283 287 285 289 287 288 286 292 293 295 296 297 299 301 293 291 288 287 292 293 293 292 291 291 291 290 288 289 290 290 289 288 287 285 285 287 287
284 283 287 287 284 279 287 288 284 282 287 288 286 286 290 294 296 296 294 298 298 291 285 287 287 293 291 290 290 289 290 290 291 289 288 289 289 289 288 289 289 284 285 286
285 285 287 284 281 284 284 286 288 287 286 285 282 285 288 291 293 294 295 297 291 286 285 284 288 289 288 288 288 289 289 289 290 290 289 289 290 289 288 288 288 287 285 284

GFSNW_925_thetae_051.txt.gz
Theta_e
301 302 302 302 301 302 305 301 310 304 304 310 307 303 304 310 310 309 310 309 310 314 314 310 312 311 312 311 310 312 309 311 317 319 315 312 311 311 310 312 311 306 307 312
300 300 299 299 297 299 304 300 306 305 305 309 303 304 309 310 309 309 309 309 309 308 312 313 310 311 310 310 310 311 310 309 316 317 314 312 318 314 310 307 306 308 314 313
299 300 298 298 296 302 304 298 302 305 307 307 307 309 310 312 309 309 308 308 307 307 309 307 310 311 312 311 312 312 309 308 308 311 309 311 314 315 313 310 311 313 314 313
299 299 298 298 297 303 301 295 300 300 309 306 305 307 310 312 312 308 308 309 308 308 310 309 310 309 311 311 313 309 308 308 306 308 308 312 312 313 315 315 315 317 316 314
299 298 298 298 297 299 297 297 299 297 298 299 306 304 308 310 309 310 312 311 307 307 309 309 309 308 308 312 308 313 306 308 305 305 307 310 311 310 310 314 314 314 315 315
298 298 298 297 297 296 293 293 294 295 296 299 306 301 303 304 305 309 311 312 309 310 310 309 308 305 303 305 306 306 308 307 305 307 304 306 309 308 308 310 311 313 316 314
298 298 298 297 297 297 296 294 292 295 297 295 297 300 301 303 304 309 308 308 310 308 303 306 304 302 303 303 303 303 303 302 299 300 302 304 305 303 305 307 307 308 310 311
298 298 298 297 297 296 297 294 292 292 294 293 296 297 298 301 300 305 309 303 300 297 306 307 309 307 309 307 305 305 302 302 303 305 303 303 306 308 307 307 308 305 305 306
298 298 298 297 297 296 295 295 294 291 294 294 294 295 294 296 298 305 302 299 297 304 307 307 309 309 309 310 310 306 306 305 307 306 308 310 304 307 305 305 309 306 304 306
297 298 298 297 297 295 295 295 294 294 293 292 292 293 294 293 294 298 297 296 300 302 306 310 309 306 306 310 309 309 310 310 311 310 312 308 304 304 303 310 308 305 307 307
298 298 297 297 296 296 295 295 294 294 291 292 293 293 293 292 291 297 295 299 299 302 307 307 305 306 303 305 305 307 308 307 309 309 312 307 303 307 310 305 304 304 305 306
298 298 298 297 296 295 295 295 295 295 292 292 294 293 294 294 294 292 291 295 300 298 306 305 304 305 304 301 306 301 307 305 306 306 305 302 301 303 301 300 301 301 303 304
297 298 298 296 295 294 295 295 294 295 290 291 292 293 294 294 294 294 293 292 293 295 293 300 304 305 303 304 303 303 302 301 304 305 303 298 298 301 297 296 296 298 302 302
298 299 298 296 294 294 295 295 294 294 291 293 293 294 294 294 294 294 294 293 293 293 292 294 297 301 297 302 301 302 301 299 298 299 299 296 298 297 295 296 295 299 299 300
299 299 297 295 294 294 294 294 294 294 294 295 293 293 294 293 294 294 294 294 292 291 292 293 296 294 295 294 295 296 295 295 295 296 296 296 296 295 296 294 296 298 299 300
298 298 297 295 294 295 295 293 294 294 294 291 293 291 293 293 294 294 293 293 292 292 293 294 295 294 296 297 296 296 294 294 294 298 298 298 297 295 294 296 298 297 299 299
298 297 297 295 294 295 293 294 294 294 294 292 290 289 291 295 294 293 293 293 291 292 292 294 293 294 296 299 299 297 297 298 298 298 296 297 298 298 297 298 298 298 298 298
297 297 297 296 294 293 294 293 294 294 292 288 283 285 291 293 293 297 295 294 292 292 292 293 295 295 295 297 296 298 299 299 297 297 295 295 295 297 298 298 298 298 298 297
297 296 295 293 293 292 294 294 294 294 292 287 285 283 286 290 292 294 298 293 294 291 294 294 295 296 297 299 299 299 299 298 297 295 294 295 294 296 297 296 296 297 299 298
295 294 293 293 293 294 295 293 291 289 289 288 286 291 287 289 290 293 297 295 297 290 295 294 296 297 296 295 296 298 298 296 295 294 294 294 294 295 295 295 295 297 298 297
295 292 292 293 294 293 289 288 289 289 289 291 287 286 287 290 289 290 294 296 294 291 294 297 293 296 296 295 296 296 296 294 293 292 292 292 293 293 293 293 294 292 293 294
295 294 294 293 289 287 287 282 287 290 290 291 290 291 291 291 291 296 298 296 297 293 292 294 294 293 293 294 295 295 294 293 292 291 290 291 291 291 291 291 291 290 290 291
294 292 289 291 286 289 285 288 287 287 288 290 288 286 289 291 291 293 296 299 297 297 299 293 292 292 293 292 293 293 293 293 291 290 290 290 291 291 290 290 290 288 288 289
292 292 291 290 288 287 286 287 286 286 290 290 289 287 292 291 292 294 297 296 301 303 295 292 285 289 292 291 292 291 290 289 288 288 289 288 289 290 290 289 287 286 286 287
291 292 293 289 288 285 281 281 286 289 289 288 288 286 290 288 294 296 296 297 298 298 291 286 286 290 290 290 290 288 287 287 287 289 288 288 288 289 289 289 288 287 285 285
288 286 289 288 288 284 289 288 283 287 288 286 285 284 284 292 295 295 295 287 288 290 283 286 285 290 288 288 287 287 287 287 287 288 288 288 288 289 290 290 289 289 287 286
288 287 289 287 287 288 286 286 288 286 287 287 283 285 287 290 293 293 294 291 289 286 284 283 286 287 286 286 286 287 287 287 287 286 286 287 288 289 290 289 289 288 287 286

GFSNW_925_thetae_054.txt.gz
Theta_e
299 299 299 300 299 303 304 306 311 305 304 311 309 310 309 310 312 310 312 312 312 313 310 308 312 313 314 314 313 314 312 316 318 319 316 314 314 316 316 318 319 315 315 314
299 298 298 299 298 302 303 309 308 305 305 312 311 309 310 311 311 310 310 311 312 312 314 314 313 313 312 313 313 314 313 316 319 319 316 315 318 316 314 315 314 318 318 316
299 298 298 298 298 298 302 308 310 307 307 308 309 312 313 313 310 311 309 310 309 311 312 310 313 314 314 312 313 311 312 313 316 318 317 317 318 317 316 316 319 317 317 316
298 298 298 298 297 302 301 304 308 306 310 311 309 310 312 313 313 311 311 312 311 311 313 312 313 312 313 312 313 311 313 317 312 311 312 314 316 317 318 318 317 319 317 316
299 298 298 298 297 302 299 305 307 303 304 304 309 309 311 313 312 313 314 312 311 310 312 311 313 312 312 315 313 314 310 316 311 311 309 312 314 314 314 316 316 316 316 316
298 298 298 297 297 298 299 295 297 304 299 305 310 307 306 308 308 311 312 313 312 314 313 312 310 308 309 310 314 313 314 313 313 314 308 309 312 310 311 312 313 315 316 314
298 298 298 297 297 296 296 296 299 304 303 304 304 303 305 307 308 312 309 310 312 309 304 308 306 307 307 308 307 309 311 310 310 313 309 312 307 305 307 309 309 309 310 311
298 298 297 297 295 297 296 295 296 301 300 300 301 302 303 304 306 310 309 304 302 302 308 311 312 312 311 309 308 308 308 309 310 313 311 309 310 309 309 310 312 309 310 311
299 298 298 297 295 296 296 295 293 298 301 299 296 299 298 307 306 309 305 301 301 306 311 311 313 314 312 313 311 307 307 308 311 311 313 312 309 307 307 307 313 308 309 310
298 298 298 297 296 295 295 295 295 297 298 295 295 299 299 296 299 305 300 298 304 305 312 314 313 313 308 313 312 312 312 312 313 313 312 310 307 307 306 312 312 306 305 305
298 298 297 296 296 296 296 294 294 296 297 295 295 295 296 295 296 306 298 303 304 308 312 312 311 311 309 309 308 310 311 312 312 312 312 311 302 308 311 305 301 300 300 301
298 298 297 296 295 295 295 295 294 295 296 295 293 293 294 294 295 296 297 302 302 303 308 307 307 308 308 307 311 305 311 308 310 309 309 303 300 304 300 299 300 299 299 301
298 298 296 296 295 295 296 295 295 295 297 295 295 295 293 294 294 294 297 297 297 298 297 304 305 307 306 310 308 308 305 303 307 305 305 302 302 302 301 299 299 298 300 301
300 298 295 295 295 295 295 295 294 295 297 299 296 294 294 294 294 294 294 295 294 295 297 300 304 305 301 304 303 304 302 300 299 301 302 301 300 301 300 300 299 298 300 300
300 298 295 295 295 295 295 295 294 294 298 300 297 293 293 293 294 294 294 295 296 297 299 300 300 298 298 298 299 301 298 300 302 303 301 299 300 299 299 299 299 299 299 299
299 297 294 294 295 295 296 297 295 295 295 299 299 293 294 294 294 294 294 295 295 296 298 298 297 296 299 299 299 298 297 297 298 299 298 298 298 297 297 298 298 298 299 299
298 297 294 294 294 295 294 297 294 294 295 299 298 298 294 294 295 295 296 295 296 296 297 297 296 296 298 300 301 299 300 301 300 298 297 297 297 297 296 296 297 298 298 297
298 297 295 294 295 294 294 293 294 294 292 293 297 295 296 293 297 297 297 297 296 296 296 296 297 297 298 301 300 299 300 299 298 298 296 296 295 295 295 295 296 296 297 297
297 296 295 293 294 294 294 294 294 294 294 295 294 298 298 293 295 297 297 296 298 295 297 297 297 298 301 301 300 299 299 298 298 296 296 295 294 295 295 294 295 295 296 298
296 294 293 296 293 294 295 294 296 295 294 294 294 292 296 294 295 298 299 297 299 300 298 296 298 301 299 298 298 299 299 298 296 295 295 294 293 293 293 293 292 294 294 293
295 293 294 293 294 293 293 295 297 294 296 295 293 293 295 293 297 298 297 297 297 301 299 300 300 301 300 298 298 298 297 296 296 295 295 294 292 292 292 292 292 291 291 291
295 295 294 292 292 293 294 289 292 295 297 295 297 295 294 294 294 298 298 299 298 300 296 299 300 300 296 296 296 297 296 295 294 293 293 293 293 292 291 291 291 291 290 290
294 293 293 296 291 294 294 292 294 296 294 292 292 294 294 294 295 296 297 300 301 297 300 301 299 296 294 294 294 295 294 292 291 291 291 291 291 291 291 291 290 290 289 288
295 297 294 295 295 293 293 295 295 290 292 292 292 293 294 293 295 296 297 298 300 301 302 301 297 295 294 294 293 293 293 291 290 289 289 289 289 289 289 290 290 290 289 288
294 297 295 294 289 288 287 287 291 291 291 291 292 293 293 294 295 295 297 297 298 299 301 297 295 293 292 292 291 291 290 289 289 289 289 289 288 288 288 289 290 289 289 288
292 291 292 290 292 289 291 289 290 290 290 289 291 292 292 294 295 296 296 295 296 298 295 294 292 292 291 290 290 289 289 288 288 289 288 288 288 288 288 288 289 290 289 289
294 292 292 292 294 294 291 290 291 288 292 294 291 291 292 292 294 294 295 295 297 296 294 291 290 291 291 290 289 288 288 288 288 287 287 286 285 285 286 288 288 288 288 288

GFSNW_925_thetae_057.txt.gz
Theta_e
300 299 299 300 300 303 305 310 312 306 306 311 312 313 314 310 312 312 313 313 313 311 309 310 312 315 315 314 314 315 314 316 318 318 316 316 316 316 317 318 319 316 316 315
299 299 299 299 299 305 308 310 309 306 307 315 313 312 313 313 313 313 313 314 313 313 313 313 314 315 313 314 315 315 315 317 320 318 316 316 317 317 316 316 317 320 318 315
299 299 299 298 298 304 307 311 310 309 309 309 312 314 314 314 312 312 311 311 313 314 314 314 315 316 315 314 314 311 313 314 317 319 318 316 316 316 316 316 319 316 316 314
299 299 298 298 298 297 306 309 312 310 311 312 313 313 314 313 314 313 312 312 312 313 314 314 315 314 315 315 313 313 315 319 315 313 315 317 317 316 316 318 317 318 315 316
299 299 298 298 297 300 305 308 309 308 312 312 313 312 314 314 314 314 313 313 312 312 313 313 314 314 314 315 314 315 314 316 314 315 312 314 315 315 316 317 317 317 317 317
301 298 298 298 298 303 304 301 303 308 307 311 313 313 312 313 313 313 313 313 314 315 314 312 312 310 312 312 314 315 315 315 315 317 310 311 313 311 313 314 314 314 315 313
299 299 298 297 298 301 301 303 306 308 310 311 311 308 310 312 312 313 311 312 313 310 307 309 309 310 310 311 311 313 315 315 314 315 311 314 308 307 308 309 310 310 311 312
299 298 298 297 297 298 299 299 303 307 309 308 306 308 310 310 311 312 310 307 306 307 310 312 313 313 312 311 310 310 310 312 313 315 312 310 311 310 310 311 313 310 311 311
299 298 298 296 296 296 298 298 298 304 306 305 304 307 309 312 311 311 308 304 305 309 313 313 314 315 314 313 312 309 309 310 311 311 312 312 310 308 308 309 313 308 307 306
299 298 297 296 296 296 298 296 298 302 301 298 299 306 307 304 307 311 306 304 309 309 314 314 313 313 310 314 314 312 312 312 314 314 313 311 306 307 308 313 311 304 302 302
299 298 297 296 295 296 299 296 297 300 299 297 297 297 300 299 302 310 303 307 308 312 314 314 313 312 311 311 311 312 312 312 312 311 313 312 303 309 310 306 304 303 303 302
300 298 297 295 296 296 298 296 296 298 299 297 295 294 295 296 296 301 302 306 306 307 311 310 310 311 310 310 312 308 311 310 311 310 312 305 303 304 302 302 301 302 301 301
299 298 297 295 295 296 296 297 296 297 298 298 298 296 294 295 295 295 303 301 301 302 302 308 308 310 308 310 310 309 308 304 309 307 308 306 303 304 302 301 301 301 300 300
300 299 296 296 295 295 296 297 296 300 301 302 297 295 295 294 296 296 296 297 297 299 301 304 308 308 304 307 306 307 304 302 302 303 303 303 303 303 301 300 300 300 300 299
300 299 295 295 295 296 296 296 295 297 302 301 298 296 294 294 296 296 296 297 298 300 302 303 303 301 301 300 300 302 300 302 303 304 303 302 302 301 299 299 298 298 298 298
299 295 295 295 295 296 298 301 296 296 299 302 301 296 297 295 296 296 296 297 298 299 301 301 299 298 301 302 301 301 300 300 300 301 300 300 299 299 298 297 297 297 298 298
297 295 295 295 295 296 298 301 297 296 298 301 300 299 296 296 297 298 298 298 298 299 299 300 299 299 300 302 303 300 300 301 301 300 299 299 298 298 296 296 296 296 296 297
297 295 295 296 296 296 296 294 294 295 296 300 302 298 298 295 299 299 298 299 299 299 299 299 300 299 300 303 303 301 300 300 299 299 298 297 297 296 296 295 295 294 294 295
296 295 296 296 296 298 296 294 294 294 299 301 302 302 300 296 298 299 298 298 301 297 300 300 299 302 303 303 301 299 299 299 298 297 297 297 296 295 295 294 294 294 294 294
295 296 298 299 294 295 295 296 299 299 298 298 297 296 298 297 299 299 299 298 301 302 301 298 300 303 302 299 299 298 298 297 296 296 296 296 296 296 295 294 294 293 292 292
296 297 296 293 294 294 296 299 301 298 301 298 296 297 297 295 300 300 298 298 298 302 301 301 303 303 300 299 298 297 297 296 295 295 295 294 294 295 294 294 293 293 292 292
296 296 294 293 294 297 299 295 297 300 300 297 299 297 297 296 297 298 299 299 298 302 298 300 301 302 297 296 296 295 296 295 294 293 292 292 292 292 293 293 293 293 292 292
294 297 296 299 294 299 303 298 298 300 297 295 295 296 297 296 296 296 298 300 301 299 301 302 302 296 295 294 294 294 294 294 293 292 291 291 291 291 291 291 291 291 292 292
301 300 296 302 299 298 300 301 302 296 297 296 296 296 297 295 297 297 299 299 300 301 301 302 298 296 294 294 293 293 292 292 292 291 290 290 290 290 289 289 289 290 290 291
298 302 299 298 291 292 292 294 295 294 295 295 296 296 296 296 297 297 298 298 299 300 301 301 297 294 293 293 292 292 291 291 291 290 290 290 289 289 289 289 288 289 289 290
297 294 293 292 295 293 294 295 293 293 294 294 296 296 296 296 297 297 297 297 298 300 300 297 294 294 293 292 292 291 291 290 290 289 290 289 289 289 288 288 287 288 289 289
297 295 294 297 297 298 296 295 293 293 296 299 297 296 296 295 296 296 296 297 299 298 297 296 295 294 293 292 291 290 290 289 289 289 289 288 288 287 286 287 288 288 288 288

GFSNW_925_thetae_060.txt.gz
Theta_e
307 304 305 303 302 303 306 310 312 306 307 311 313 314 313 310 312 312 313 313 313 312 310 311 313 316 315 314 314 316 316 316 318 319 317 316 316 317 315 316 317 314 313 313
307 302 304 300 299 304 308 311 309 307 307 315 313 313 313 313 313 313 314 314 312 313 312 313 313 315 314 315 315 316 315 316 315 316 316 316 317 316 316 316 316 317 314 313
306 302 304 299 299 307 308 309 309 308 309 309 312 314 313 314 312 312 311 313 314 314 312 314 314 315 315 314 314 312 312 315 316 316 317 315 316 315 315 316 314 316 315 314
304 303 304 299 299 306 307 310 311 309 310 310 312 314 313 313 313 313 312 312 313 313 314 313 313 313 314 315 312 314 314 317 311 313 315 316 317 315 314 314 315 315 314 313
304 302 303 299 298 305 306 309 310 309 311 311 312 313 314 314 314 315 313 313 312 312 314 314 314 313 313 314 314 314 313 314 313 311 312 313 314 314 315 316 316 316 315 315
303 302 303 299 298 302 306 304 305 308 311 312 313 314 313 314 314 313 313 313 314 314 313 310 311 310 312 313 314 314 314 311 310 313 310 310 310 310 313 314 314 314 315 312
303 303 300 298 297 301 303 303 307 309 309 311 312 312 312 313 313 314 311 312 313 309 308 309 309 309 310 310 312 312 315 314 310 309 309 309 308 307 308 309 310 310 310 310
302 302 299 298 298 301 301 303 305 307 310 308 309 311 311 311 311 311 309 307 306 307 310 312 312 312 311 311 310 310 310 313 312 313 310 309 310 309 310 311 312 308 308 307
303 302 298 297 299 302 299 301 301 304 308 305 307 309 310 312 311 310 307 305 307 309 312 313 315 314 313 312 312 309 309 309 310 309 311 312 309 308 308 309 311 304 303 303
303 301 298 297 298 301 299 299 300 303 301 298 299 305 307 306 309 310 307 306 309 309 313 313 312 312 310 313 313 311 311 311 310 310 310 310 305 306 308 311 308 304 303 302
302 300 297 296 297 297 299 297 300 301 299 297 298 298 300 301 302 308 302 306 307 311 313 313 312 311 309 310 311 311 311 309 310 311 313 310 303 307 309 303 302 301 301 301
300 301 297 296 297 298 297 297 298 299 297 296 295 295 295 296 297 299 303 306 306 305 310 309 309 310 309 309 310 308 309 307 308 309 309 303 303 303 301 300 300 300 300 300
302 301 299 296 296 298 298 297 297 297 297 296 297 295 295 296 296 296 301 300 301 302 300 306 307 310 306 309 308 308 307 303 307 305 306 303 301 300 300 299 299 298 299 299
301 300 297 296 296 297 297 298 299 300 300 299 296 296 295 295 296 296 297 298 298 299 300 303 306 306 303 305 304 305 301 301 301 302 301 302 301 300 299 298 298 298 298 298
301 300 298 296 297 297 298 299 299 301 302 299 296 296 296 296 296 296 297 298 299 299 300 301 302 299 300 299 298 300 299 300 300 303 301 301 300 299 299 298 297 296 296 297
300 300 297 297 297 297 299 300 297 299 298 298 298 297 296 296 297 297 296 297 297 298 300 299 297 297 299 300 300 299 298 298 299 300 299 300 299 298 297 296 295 296 296 295
300 298 296 296 297 298 299 300 297 299 300 297 297 296 296 297 298 298 297 298 297 298 298 299 298 298 298 301 301 298 298 301 300 298 298 298 298 296 295 295 294 294 294 294
298 296 295 296 297 296 295 294 296 296 298 299 296 294 296 295 298 298 297 298 298 297 298 297 298 298 298 300 301 299 299 299 298 298 297 296 295 295 294 294 294 293 293 293
296 296 296 297 297 298 295 295 295 295 299 297 298 296 295 295 297 298 298 297 299 296 299 298 298 300 298 301 300 298 298 298 297 296 295 294 295 294 294 293 292 292 292 292
296 297 300 299 294 295 296 298 298 296 297 296 294 294 293 296 298 298 299 298 301 300 299 296 298 300 300 298 297 296 296 296 296 295 293 293 290 293 292 292 292 292 291 292
297 297 295 294 294 296 297 297 297 297 298 297 295 295 294 294 299 298 298 298 298 301 301 300 302 299 299 296 296 295 295 295 295 294 293 292 291 291 291 291 292 292 292 292
297 296 295 294 295 298 297 295 296 299 296 296 296 295 295 294 296 297 298 297 298 301 298 299 300 300 294 294 294 294 294 294 293 293 291 291 291 291 291 291 291 291 291 290
296 296 295 297 294 300 298 294 295 295 295 293 292 293 294 294 296 297 297 297 299 296 300 300 299 295 293 292 292 292 293 293 293 291 291 290 290 290 290 289 289 289 289 289
298 297 293 297 296 300 301 301 298 295 295 296 294 293 294 295 296 296 294 299 298 299 296 295 291 293 292 292 292 291 290 290 289 289 290 289 289 289 290 289 288 289 288 288
295 298 295 298 293 293 294 292 293 294 294 293 293 292 294 293 293 296 295 294 293 295 295 294 290 292 292 291 291 290 289 288 288 289 289 289 289 289 288 288 288 288 288 287
294 293 292 293 294 293 294 292 293 293 293 292 293 292 290 293 293 293 291 293 292 292 292 291 290 292 292 291 290 289 289 289 289 289 289 289 289 288 288 288 287 287 287 287
295 293 293 295 296 296 295 293 292 292 294 294 293 290 293 291 291 294 293 290 291 291 290 289 291 291 290 290 289 289 289 288 288 288 288 288 288 287 286 285 287 287 288 287

GFSNW_925_thetae_063.txt.gz
Theta_e
314 309 306 301 305 304 306 306 308 306 306 310 311 312 313 311 311 312 312 312 312 313 309 311 314 316 314 312 313 314 315 314 318 318 317 315 316 316 315 314 315 312 310 310
311 308 305 303 304 305 307 307 307 306 307 308 310 312 313 313 313 313 313 312 312 312 312 312 315 314 313 314 314 314 313 314 316 316 314 315 317 316 316 314 314 314 310 311
310 307 304 303 305 306 308 305 308 308 307 307 311 311 312 313 312 313 313 313 312 313 313 311 314 315 315 313 312 313 312 313 309 312 315 314 316 315 315 313 311 315 315 313
308 306 304 301 303 307 307 305 305 306 308 306 309 312 312 313 313 311 310 311 313 313 313 313 314 313 315 314 312 313 313 312 308 312 314 314 315 314 314 313 313 313 313 313
308 305 303 300 303 305 306 307 306 304 304 307 310 311 313 313 314 312 312 313 312 311 313 314 313 312 312 313 313 313 310 309 310 307 311 312 313 313 313 313 314 314 313 313
307 305 302 301 304 306 304 304 304 304 307 307 309 310 312 313 312 312 311 312 312 312 311 308 309 309 309 312 312 312 311 306 305 308 308 308 308 309 311 313 313 314 315 311
307 304 302 302 303 306 304 303 303 303 308 308 310 311 312 312 312 312 308 309 310 309 307 307 306 307 308 308 310 311 312 309 304 303 306 305 306 306 307 310 309 308 308 306
305 304 302 302 303 304 302 303 304 302 305 305 309 311 310 309 307 308 307 305 305 305 308 308 309 310 310 309 307 307 309 310 307 308 305 308 309 308 309 311 309 304 305 303
305 304 301 303 301 301 301 302 301 300 303 301 297 309 308 307 307 307 304 304 305 308 310 311 311 310 311 311 311 307 308 306 307 307 309 310 308 307 306 307 310 301 301 301
305 302 301 303 300 301 300 299 301 298 296 295 297 304 306 305 305 304 305 305 308 307 309 310 309 308 309 310 310 310 308 308 307 307 306 308 303 302 306 309 305 300 300 300
304 303 301 302 302 303 299 298 300 298 294 294 295 295 297 299 300 304 301 305 305 307 310 310 308 308 307 308 309 308 308 306 308 308 313 311 302 304 308 301 300 299 299 299
303 301 300 299 302 303 299 298 298 298 293 293 295 295 295 295 296 298 300 303 304 304 308 306 305 307 305 306 308 306 308 306 307 306 306 302 299 299 298 298 299 298 298 297
302 300 300 301 301 298 298 298 296 296 292 292 293 294 295 296 296 297 300 298 300 300 298 302 304 307 303 306 305 306 305 301 305 304 301 299 298 297 297 297 297 297 297 297
301 300 300 300 300 298 298 298 298 298 293 294 293 295 295 296 296 297 298 297 298 297 297 300 302 304 301 303 303 304 302 300 300 300 301 298 298 298 297 297 296 296 296 296
301 299 300 300 298 297 298 300 300 301 296 295 294 294 296 296 297 297 297 297 296 296 297 296 300 296 298 296 296 298 297 298 298 299 299 299 299 298 296 296 296 295 295 295
300 299 299 298 297 298 300 296 299 298 298 294 295 295 295 297 297 297 296 296 295 295 296 295 294 296 297 296 297 297 297 297 297 298 298 298 298 297 296 296 295 295 294 293
299 298 298 297 298 299 298 297 298 299 297 294 294 292 294 296 297 296 295 296 295 295 295 296 295 296 296 298 299 297 297 297 297 296 296 297 296 295 294 293 293 294 293 293
299 298 297 297 297 297 295 297 299 299 299 293 289 289 292 295 297 296 295 295 295 294 295 295 296 295 295 298 298 297 297 296 296 295 295 295 294 293 293 293 292 291 290 290
297 296 297 297 297 296 296 295 296 297 295 293 290 292 290 293 296 297 295 295 296 294 297 297 296 297 296 298 298 297 296 296 295 295 294 294 294 292 292 291 290 290 290 289
296 296 298 296 295 294 296 297 294 293 293 290 289 286 289 293 298 298 298 297 300 294 297 294 297 298 298 295 295 295 294 294 294 293 291 291 288 290 290 290 289 290 289 290
297 295 295 294 295 296 295 295 294 293 292 292 291 288 291 293 293 296 297 298 298 300 298 297 299 299 296 294 293 293 292 293 293 293 292 291 290 289 289 289 290 290 289 289
297 295 295 294 294 295 293 292 293 294 294 293 292 293 292 293 293 294 297 295 297 300 298 298 300 298 294 292 292 293 292 293 292 292 291 290 290 289 289 289 289 289 289 289
296 294 291 290 289 292 287 293 292 291 292 290 290 291 292 293 294 295 293 292 294 295 299 297 295 295 291 290 291 291 291 290 291 290 290 290 289 289 289 288 289 288 288 288
293 291 292 288 288 293 297 294 291 291 290 292 292 292 294 294 293 293 289 297 296 292 290 292 289 290 290 289 290 290 290 288 287 286 288 288 287 287 288 288 288 287 287 287
291 289 288 290 292 292 289 285 290 289 291 291 291 292 292 290 291 294 292 290 288 290 292 290 286 289 289 289 290 289 288 286 286 287 287 287 288 287 287 288 287 287 287 286
288 286 288 292 293 293 288 288 292 287 291 289 290 289 288 291 290 289 287 289 289 290 287 288 287 289 289 290 289 288 288 287 287 287 287 287 287 286 286 286 286 286 286 286
286 287 292 292 293 293 291 290 290 290 292 291 288 288 290 289 288 291 289 288 287 287 286 285 288 289 288 287 287 287 287 287 287 287 287 287 287 286 285 283 285 286 286 286

GFSNW_925_thetae_066.txt.gz
Theta_e
303 306 309 305 303 305 306 305 306 305 306 308 309 311 312 311 310 310 311 311 312 310 308 311 314 316 313 312 312 314 313 313 316 317 314 314 315 316 312 309 312 309 306 309
302 304 307 305 302 305 307 306 307 305 307 310 310 311 314 312 312 312 312 311 311 311 312 313 314 314 313 313 312 313 312 312 307 312 312 313 316 316 315 313 312 314 310 310
302 304 307 305 304 306 308 304 308 307 307 306 309 312 313 314 312 312 312 312 311 311 312 310 314 314 315 312 311 313 311 310 309 310 311 313 315 316 314 312 312 314 314 310
301 308 307 303 306 307 307 303 303 306 308 308 307 309 311 313 313 311 310 311 313 312 311 311 313 314 314 312 312 311 310 309 307 312 312 313 313 314 314 313 313 315 313 312
301 309 308 304 304 307 307 306 304 302 302 305 306 310 311 312 313 311 311 311 311 310 312 311 311 312 312 313 311 312 308 307 308 306 309 309 312 312 313 313 312 313 312 312
301 303 306 303 303 307 305 303 302 303 305 305 307 310 312 312 311 310 309 311 311 310 309 308 308 307 307 310 311 311 309 306 304 309 306 307 309 308 311 312 311 312 314 311
301 306 305 303 304 307 304 302 301 303 307 307 308 310 311 312 311 310 307 309 309 309 306 306 305 305 305 306 307 309 309 307 302 301 303 306 306 305 307 309 307 306 305 304
303 307 304 303 303 306 302 302 302 301 304 305 309 310 309 306 306 306 306 305 304 304 307 307 308 307 309 309 306 307 307 307 306 305 304 305 308 308 308 310 306 301 302 301
301 304 304 302 303 306 303 301 301 299 303 301 296 308 308 306 305 305 304 304 305 307 307 308 309 309 309 310 310 307 305 305 305 306 308 310 306 305 303 306 308 301 301 300
306 303 304 302 303 305 303 300 300 298 296 293 296 305 306 303 303 303 304 306 307 306 307 309 309 307 307 310 309 309 307 306 306 306 305 306 303 302 303 307 305 300 300 300
305 305 303 302 303 303 302 298 299 298 293 293 293 294 299 299 301 304 302 305 305 306 308 308 307 306 306 307 306 306 307 305 307 306 309 311 301 303 308 301 299 299 298 298
305 304 303 301 302 303 299 298 297 297 293 293 294 294 295 295 295 298 299 302 303 304 305 305 303 307 303 304 308 304 308 304 306 305 306 299 298 299 298 298 298 298 297 297
304 303 302 301 302 302 300 298 296 296 291 292 293 293 295 296 296 297 300 298 299 300 298 301 303 307 302 305 304 305 304 301 303 303 300 299 298 297 297 297 297 297 296 296
303 301 299 302 303 302 299 298 297 297 292 295 293 295 295 296 297 298 298 297 297 296 296 299 301 304 299 301 302 303 301 300 299 299 297 297 298 297 296 296 296 296 295 295
302 299 300 301 300 298 298 298 299 298 297 295 293 294 296 296 297 297 298 297 295 296 296 296 300 296 297 294 295 298 297 299 299 300 298 297 297 296 295 295 295 295 294 294
300 298 299 300 298 298 299 296 299 298 298 293 296 294 295 297 297 296 295 295 294 294 295 295 294 294 295 295 296 295 296 296 296 298 297 296 297 295 295 295 294 293 293 292
300 298 298 298 298 299 297 297 298 298 298 294 294 292 293 295 296 294 294 295 293 293 294 295 294 294 294 297 298 296 296 296 296 295 295 296 295 294 294 293 292 293 292 292
298 297 297 298 298 297 296 297 299 299 295 290 289 294 293 294 294 295 293 294 293 293 294 294 295 294 294 297 296 296 296 295 294 294 294 293 294 293 292 292 291 290 289 289
299 297 297 297 297 295 296 297 297 297 294 290 287 291 293 292 295 294 294 293 296 293 296 296 295 296 296 297 296 296 295 296 294 293 293 293 293 291 290 290 289 289 288 288
296 297 297 296 295 294 296 297 293 293 291 289 290 284 293 292 296 296 294 295 295 289 296 293 297 297 296 294 294 294 294 293 292 291 290 291 286 289 288 288 288 288 288 288
297 295 294 294 295 296 294 294 292 293 291 291 289 288 293 292 292 297 295 298 298 298 293 295 294 297 295 293 293 292 291 292 292 292 292 291 289 288 287 287 288 288 288 287
297 295 295 294 294 292 292 288 292 293 292 292 292 292 292 292 292 294 295 293 297 293 298 298 297 295 293 292 292 291 291 292 292 291 291 290 289 289 288 287 287 288 288 288
295 294 292 293 288 292 289 293 294 295 292 291 291 291 292 292 293 293 292 291 291 295 298 293 293 293 291 290 290 291 290 289 289 289 289 289 288 288 288 287 287 287 287 287
293 293 293 292 291 291 293 295 290 289 289 290 291 291 293 293 293 293 291 296 295 292 288 292 288 291 289 288 288 289 289 288 286 286 287 287 286 286 287 286 287 286 285 286
290 292 289 287 291 291 290 282 288 289 291 290 290 289 291 289 291 293 294 296 288 290 291 289 286 289 287 288 288 288 288 286 285 286 286 286 286 285 285 286 286 286 285 285
289 287 290 292 290 289 285 289 292 287 289 287 289 287 288 291 290 289 287 289 289 289 285 287 287 288 287 287 288 288 287 286 286 286 286 286 286 285 285 285 285 285 285 285
290 290 291 289 289 288 288 290 291 289 290 288 286 286 288 288 287 290 288 287 288 285 286 284 286 287 287 287 287 287 287 286 286 286 287 286 287 286 285 282 285 285 285 285

GFSNW_925_thetae_069.txt.gz
Theta_e
300 302 303 310 305 305 306 306 308 304 305 308 307 308 310 310 309 308 310 309 311 308 308 312 314 314 313 310 312 313 312 311 314 316 314 313 314 315 310 310 313 307 306 310
300 304 302 306 304 305 306 307 306 305 306 307 307 311 312 310 310 311 310 310 310 311 310 314 313 314 312 311 311 312 311 308 305 308 309 312 316 315 312 310 308 310 307 309
301 303 303 306 305 306 306 305 308 307 307 305 308 312 313 312 310 311 311 310 310 311 310 309 314 315 313 311 311 313 309 308 307 308 309 312 316 315 312 310 307 312 311 310
301 303 302 306 305 306 307 303 305 306 308 307 308 309 312 312 312 310 310 311 311 309 311 311 313 314 313 311 311 310 308 308 306 309 311 312 313 314 313 312 313 312 312 310
300 303 302 305 304 305 307 306 303 302 304 304 307 309 311 312 311 309 310 310 310 309 309 309 310 313 312 312 310 310 306 306 306 305 306 308 312 311 313 313 312 312 311 312
300 302 301 303 305 304 306 304 301 302 306 303 307 309 309 310 309 309 309 309 309 309 309 307 306 306 307 310 311 309 307 306 303 308 304 306 308 307 310 311 308 311 313 310
301 301 303 305 304 305 304 302 300 302 306 305 307 309 310 310 310 310 306 307 309 309 305 303 304 304 304 305 304 307 307 305 301 301 303 306 305 305 306 306 304 304 303 301
301 301 306 306 304 306 304 300 300 301 303 304 308 310 308 306 304 305 305 304 303 303 304 306 308 307 308 308 305 306 305 305 305 304 302 304 307 306 307 308 307 301 301 301
301 302 305 304 305 306 303 299 299 299 304 300 296 308 306 305 304 304 304 304 304 305 306 306 309 308 308 310 309 305 304 302 305 305 308 310 306 305 303 305 308 300 300 301
301 306 304 304 305 306 306 299 298 297 295 292 296 306 307 303 301 302 304 306 307 304 305 308 309 307 306 309 308 309 307 305 306 305 305 306 303 303 303 307 305 299 299 300
303 306 304 304 304 304 305 298 298 297 292 292 293 294 299 300 301 305 302 305 305 305 307 308 306 306 305 306 305 305 306 305 306 305 308 307 301 303 307 301 298 299 298 298
305 305 304 303 302 304 303 298 297 297 293 293 293 294 294 295 295 298 297 301 303 303 304 303 302 306 302 303 308 302 307 303 305 304 305 298 298 300 298 297 297 298 297 297
305 305 303 302 303 301 300 298 297 297 292 292 293 294 295 296 296 297 301 298 299 300 297 300 301 307 301 304 303 304 304 300 303 303 300 299 298 297 296 296 296 296 295 295
304 304 302 302 301 300 298 298 297 297 292 296 295 295 295 296 297 297 298 297 296 295 296 299 301 304 298 301 301 302 301 300 299 299 297 298 297 297 296 295 295 295 294 294
303 302 301 301 303 301 299 298 298 297 297 295 294 293 296 296 297 297 298 297 295 295 296 296 300 295 296 293 295 298 296 299 300 302 297 297 296 295 294 294 295 294 294 293
302 300 302 302 301 301 299 297 299 298 297 294 296 293 294 296 296 296 295 294 293 292 295 294 293 293 295 296 297 294 294 295 294 298 296 295 295 294 294 294 293 293 292 292
300 300 301 299 298 298 296 296 297 297 297 294 294 292 293 294 294 293 293 293 292 293 294 294 293 294 294 296 297 295 295 296 295 294 294 296 294 294 293 292 292 292 291 291
299 300 299 298 298 297 296 297 297 297 293 291 291 296 293 294 294 295 292 294 292 293 293 293 294 294 294 296 295 295 295 294 294 294 293 292 292 292 292 292 290 290 288 288
299 298 297 297 297 295 297 297 297 296 294 290 289 292 295 292 294 293 294 293 295 292 296 295 295 296 295 296 295 295 294 295 294 293 292 292 292 291 289 289 288 288 287 287
297 297 296 296 296 295 297 296 293 293 291 290 290 286 297 292 294 294 293 293 294 289 296 293 296 296 296 294 294 294 294 293 291 291 290 291 286 288 288 287 286 286 286 287
297 294 293 294 295 296 292 291 292 291 292 292 290 291 295 292 293 293 294 290 292 290 292 295 292 296 294 292 292 292 291 290 290 291 291 291 289 287 286 286 286 287 287 287
297 295 294 295 293 292 290 286 290 292 294 292 293 292 292 292 292 294 293 292 291 293 295 297 294 293 293 292 291 290 289 290 290 291 290 289 288 288 287 286 286 286 287 287
295 293 291 292 289 288 287 291 289 290 293 291 291 291 292 292 293 293 292 293 292 295 297 292 291 292 291 291 290 289 288 289 289 289 288 288 288 287 287 286 286 286 285 286
293 293 294 289 286 288 288 291 295 292 291 291 290 291 293 292 291 292 289 296 295 293 290 291 287 291 291 289 288 288 287 287 284 285 286 286 286 286 286 286 285 285 284 285
292 290 293 286 289 292 289 288 289 288 292 290 289 290 291 290 292 293 295 295 287 289 290 288 286 289 288 287 287 286 287 286 285 286 285 286 286 285 285 286 285 285 284 284
287 286 289 291 292 290 285 284 288 286 289 288 289 289 290 291 290 289 287 288 288 288 285 286 286 288 286 286 286 287 287 286 286 286 285 286 285 285 285 285 285 285 285 284
289 290 291 289 289 290 290 290 290 288 289 289 288 288 290 288 287 290 288 288 288 285 284 284 286 287 286 285 287 288 287 286 285 285 286 286 286 286 284 281 285 285 284 284

GFSNW_925_thetae_072.txt.gz
Theta_e
301 301 302 302 305 305 304 305 306 304 305 308 308 307 307 309 308 308 309 307 309 307 307 312 313 314 312 310 311 312 311 309 315 316 313 312 314 313 308 309 313 306 309 311
301 301 301 303 306 304 305 305 305 304 305 309 308 307 310 308 309 309 309 310 309 310 310 313 313 313 311 309 310 312 310 307 304 307 308 310 315 314 310 307 306 308 309 310
302 302 302 302 306 305 304 305 306 306 306 305 305 309 310 310 309 310 309 309 309 310 310 309 313 314 312 310 311 312 308 306 306 307 308 310 315 314 311 308 306 310 308 309
302 302 302 302 306 304 304 304 306 307 308 308 306 309 310 310 312 309 310 311 310 309 311 310 312 313 312 310 310 308 307 308 305 306 310 312 313 314 312 308 310 310 310 309
302 301 302 304 306 305 306 306 305 302 304 303 307 309 310 310 310 309 310 310 310 308 309 309 311 312 311 311 308 308 305 305 306 305 305 307 312 311 312 312 311 311 307 310
302 301 302 302 304 306 306 303 301 302 306 303 307 309 310 311 308 308 307 308 308 309 309 307 305 305 305 307 310 308 306 305 302 307 303 306 308 308 310 310 308 310 311 309
302 301 302 304 304 306 305 302 300 302 306 304 306 308 309 309 309 309 305 307 308 308 303 302 303 303 303 303 303 305 305 304 300 301 303 307 305 304 304 308 305 304 303 301
301 302 304 306 304 304 304 300 300 300 305 302 307 308 306 304 303 304 305 304 303 302 303 306 308 306 308 307 303 304 303 303 303 303 302 303 306 307 306 309 308 301 301 300
302 303 305 305 304 304 301 297 298 296 302 302 294 307 305 304 303 304 305 304 303 303 304 305 308 308 308 310 309 304 303 301 305 305 307 310 305 305 303 305 306 300 300 301
301 304 306 305 304 305 305 298 297 295 295 292 294 305 305 301 301 302 305 306 307 303 304 308 308 306 305 309 309 309 306 304 305 305 304 305 302 303 302 307 304 299 299 299
300 305 305 305 305 304 305 297 296 296 292 292 294 295 299 300 301 304 302 304 305 305 307 307 306 305 304 305 304 306 307 304 305 304 307 305 298 304 305 300 298 298 298 298
304 305 305 304 305 305 304 299 297 296 292 292 293 293 294 294 295 298 297 301 303 303 304 303 302 305 300 302 306 302 306 303 304 304 304 298 298 299 297 297 297 297 297 296
303 305 304 304 303 304 303 300 298 297 292 293 295 294 295 296 295 296 301 298 298 299 296 299 300 306 300 304 303 304 303 299 303 303 300 299 298 296 296 296 296 295 295 294
305 305 304 303 303 302 302 299 298 297 293 299 296 295 295 296 297 297 297 297 296 295 295 298 300 304 297 300 300 301 301 300 299 299 298 297 296 295 295 295 294 294 294 294
305 303 302 303 301 299 299 298 298 297 297 296 294 293 296 296 297 297 298 297 295 295 296 296 300 295 296 292 295 298 296 299 301 302 298 298 297 294 294 293 294 293 293 292
304 302 301 302 301 300 299 296 298 297 297 294 299 293 294 295 296 295 294 293 292 292 295 294 293 292 295 296 298 295 293 293 293 297 294 295 295 293 293 294 293 293 292 291
302 301 302 302 301 300 297 297 297 297 297 293 293 293 293 293 294 293 293 293 291 293 293 294 293 293 293 295 296 294 294 295 295 293 294 296 294 294 292 293 292 292 291 290
301 300 299 298 299 298 297 296 296 295 294 291 291 295 293 294 294 295 291 294 292 292 293 292 294 293 293 296 295 294 295 294 294 293 292 292 292 291 291 291 290 290 288 287
300 298 297 298 298 296 297 297 296 295 294 290 289 293 294 292 294 293 294 293 294 292 295 295 294 295 294 295 294 294 294 294 294 292 291 291 292 291 290 289 287 287 286 285
298 298 297 295 295 297 296 295 293 292 290 289 288 287 295 292 293 294 293 293 295 290 295 292 296 296 295 294 293 293 294 293 291 291 291 291 286 288 288 287 286 285 285 285
297 294 293 294 296 296 291 290 292 292 293 292 289 292 294 291 293 294 294 288 290 291 291 294 292 296 294 292 292 291 291 291 290 289 290 289 288 287 286 286 286 286 286 285
297 295 295 295 292 289 287 284 291 291 294 291 293 292 293 292 291 294 293 291 288 292 290 295 293 292 293 291 291 290 289 289 289 290 290 289 289 288 286 286 285 286 286 285
295 293 289 290 286 287 286 287 287 289 292 291 292 292 292 292 293 293 291 290 290 293 297 291 291 291 291 290 289 289 288 289 289 289 288 288 287 287 286 285 286 285 284 285
293 292 294 291 287 288 289 289 289 291 291 291 290 292 293 292 292 292 289 296 294 292 293 290 287 289 291 289 288 288 287 286 282 284 286 286 286 286 286 285 285 284 284 284
292 289 293 288 289 291 289 283 287 288 292 290 291 290 290 289 291 294 295 295 291 289 290 288 285 289 289 288 287 286 286 285 285 286 284 285 285 284 285 286 285 285 284 283
287 283 286 290 290 291 286 282 285 285 289 288 288 288 290 292 292 290 287 288 289 289 285 286 285 289 287 287 286 286 286 286 286 286 285 285 285 284 284 285 285 285 284 283
285 285 289 288 286 288 287 287 289 287 288 287 286 287 289 288 287 290 288 289 289 285 284 283 286 288 286 285 286 287 287 286 286 285 285 285 285 284 283 281 284 284 283 283

GFSNW_925_thetae_075.txt.gz
Theta_e
302 302 303 303 303 304 303 304 305 304 304 306 307 307 306 308 307 307 308 306 307 306 307 312 313 313 312 309 310 312 310 311 314 315 311 310 313 312 307 314 313 307 310 311
302 302 303 302 304 304 303 303 304 304 305 309 308 307 309 307 308 308 308 309 309 308 309 312 312 313 311 308 310 311 309 308 306 311 310 310 314 313 308 306 306 308 311 311
302 302 302 301 305 304 303 304 305 304 306 305 306 310 308 309 308 309 307 308 308 308 309 308 313 313 311 309 311 311 306 306 307 310 310 311 315 314 309 307 309 310 308 309
303 303 302 303 305 304 303 303 305 305 307 307 306 307 308 309 310 308 308 309 308 308 310 310 313 312 310 309 308 307 306 308 304 305 307 311 312 313 312 309 309 310 309 309
303 303 301 302 304 304 304 305 305 304 304 304 305 308 308 309 308 309 310 309 309 307 308 308 311 311 310 311 307 307 304 305 304 304 305 308 312 310 311 312 310 309 307 310
303 303 301 303 304 305 305 303 301 303 305 304 307 309 309 309 307 307 306 307 307 307 308 305 305 303 303 305 308 306 305 304 302 307 303 306 308 307 310 310 308 308 310 308
303 302 302 304 305 305 305 301 300 303 306 305 307 308 308 308 307 307 305 305 307 307 300 301 303 302 302 303 303 302 305 303 300 302 304 308 305 304 304 308 306 304 304 302
302 300 304 305 305 304 303 299 300 302 305 303 307 308 305 304 302 303 304 303 302 301 302 306 308 306 308 306 302 302 302 302 303 305 303 304 305 306 306 308 308 302 301 300
301 301 306 305 305 304 303 297 298 299 303 302 295 305 304 303 303 303 305 304 302 302 302 304 307 307 307 309 308 303 302 301 305 305 307 309 305 304 303 304 306 300 300 300
301 304 306 305 305 304 302 296 296 296 296 293 295 303 304 300 300 302 304 305 306 302 304 307 307 304 304 308 310 309 305 303 305 306 305 305 302 302 302 308 304 299 299 299
301 306 305 304 304 304 300 295 296 296 292 293 294 294 298 300 301 304 302 304 305 304 306 306 305 305 303 304 304 306 306 304 305 304 306 304 299 303 305 301 298 298 298 297
303 306 305 304 304 304 303 297 296 296 292 292 293 293 294 293 295 297 296 301 302 302 303 302 301 304 299 301 305 301 305 303 304 303 304 298 298 299 297 296 297 297 297 296
304 305 305 305 304 304 303 298 298 298 292 293 295 294 295 296 295 296 301 297 298 299 296 298 300 305 300 304 302 303 302 298 302 303 300 298 297 296 296 296 296 295 295 294
305 305 305 305 304 304 304 299 298 298 295 299 296 295 296 295 297 297 297 297 296 295 295 298 300 304 297 300 299 300 300 299 299 300 298 297 296 295 295 295 294 294 294 293
305 304 304 304 303 303 303 299 297 297 297 296 296 294 295 295 297 297 297 297 295 295 296 296 300 295 295 292 295 297 296 299 301 303 299 298 298 295 294 293 293 292 292 292
304 303 303 302 298 299 300 296 297 297 296 294 301 293 293 295 295 295 293 293 291 292 295 294 293 292 295 297 298 297 294 293 294 297 294 294 294 293 292 292 292 292 291 291
303 302 303 301 299 299 297 296 297 297 296 293 293 292 293 293 294 292 292 292 291 292 292 294 293 293 293 295 296 294 292 294 295 293 294 297 295 295 292 292 292 292 291 290
302 301 302 301 300 298 297 296 296 295 295 291 290 292 292 293 294 295 290 293 292 292 292 292 293 292 292 295 295 294 294 294 294 292 292 292 292 291 291 291 289 289 287 286
301 300 299 299 299 296 297 296 295 295 293 290 289 293 293 292 293 293 293 292 294 292 295 295 294 294 294 295 293 293 293 294 294 291 291 291 292 291 290 289 287 287 285 285
299 298 296 294 295 296 296 295 293 291 290 289 289 287 292 292 292 294 293 292 294 290 295 292 295 296 294 293 292 292 292 292 290 291 291 291 286 288 288 287 286 285 284 284
297 294 291 295 296 295 290 291 291 292 293 292 290 289 294 291 293 294 293 288 288 290 291 294 292 295 293 291 292 291 291 290 290 289 290 289 288 287 286 286 286 286 285 285
297 295 295 295 291 288 288 284 289 292 292 291 292 292 292 291 291 294 293 290 289 291 288 295 292 291 292 291 292 290 289 289 289 289 289 289 289 287 286 285 285 285 285 285
295 292 288 291 287 288 287 288 287 289 292 291 292 294 292 291 291 292 290 290 291 290 293 290 290 290 291 290 289 288 287 289 289 289 288 288 287 287 286 285 286 285 285 285
292 290 292 291 287 288 290 289 288 288 289 291 290 292 293 292 292 293 288 294 293 290 288 290 286 288 289 288 288 288 287 286 282 284 286 286 285 285 286 285 285 284 284 285
293 289 292 289 290 284 286 281 285 286 290 291 290 291 292 291 291 294 294 293 290 288 290 288 284 288 288 287 287 287 286 285 285 286 285 285 285 284 285 286 285 284 283 283
285 282 285 286 286 284 289 287 289 286 290 286 289 290 288 290 291 290 289 288 288 289 285 285 284 288 287 287 286 285 285 285 286 286 285 285 284 284 284 284 284 284 283 283
288 284 286 287 284 287 287 287 288 287 288 288 287 287 290 287 284 289 287 288 288 285 283 282 285 287 286 285 285 286 287 286 286 285 285 285 284 284 282 280 283 282 282 282

GFSNW_925_thetae_078.txt.gz
Theta_e
302 303 304 302 304 304 303 303 305 301 303 305 306 309 308 307 309 309 309 309 309 311 312 314 315 316 314 312 312 314 313 316 319 318 314 312 316 316 313 318 316 313 316 314
302 303 302 302 303 304 302 303 304 304 304 309 309 309 309 308 309 309 310 311 310 309 313 315 315 315 313 312 313 314 312 315 321 319 316 314 317 314 311 311 314 314 317 315
303 303 299 305 304 304 303 305 305 303 303 306 308 311 309 309 309 310 309 310 310 311 313 313 315 315 313 311 313 310 310 312 313 317 316 315 318 315 313 314 319 314 314 313
303 303 300 305 304 304 303 304 305 305 308 308 308 308 309 310 311 311 309 311 311 311 313 313 315 314 313 311 310 310 312 315 311 311 311 314 315 316 315 316 312 315 313 313
303 303 302 303 304 305 305 305 306 305 307 307 307 309 309 310 310 311 311 311 309 310 311 311 314 313 313 313 312 311 310 315 310 314 310 313 315 314 315 314 313 312 312 313
303 303 302 305 305 305 305 303 302 306 306 307 310 310 310 311 310 309 309 310 311 311 309 309 309 310 309 309 312 311 311 313 314 316 308 311 315 310 313 314 312 312 314 312
303 302 303 305 305 305 304 301 303 306 307 308 309 309 310 310 309 311 308 309 311 307 305 305 308 309 309 309 308 307 311 310 311 316 311 317 308 307 307 309 310 309 309 309
302 301 305 306 305 305 303 298 302 305 307 307 309 308 308 308 307 308 308 307 305 304 307 311 312 312 312 310 307 307 308 309 311 315 314 308 307 308 309 310 311 307 308 306
300 306 306 305 304 304 301 297 299 304 308 304 297 306 308 310 310 309 308 306 305 306 308 309 311 312 310 312 311 307 308 308 312 311 312 310 308 307 305 307 310 305 305 306
304 306 305 305 304 304 300 296 298 301 303 296 296 305 306 304 307 310 308 308 309 306 311 311 311 311 307 311 312 312 312 311 313 313 313 310 305 305 304 310 309 304 304 305
306 304 305 305 304 302 299 295 297 299 299 296 295 295 301 304 306 311 308 309 309 310 311 311 310 310 308 309 307 309 311 312 312 310 313 310 303 305 309 306 302 303 303 303
307 304 304 304 304 302 299 297 296 297 298 296 293 293 294 294 296 303 303 306 307 308 310 308 307 308 306 308 310 304 310 309 309 309 309 303 302 304 302 302 304 302 302 301
306 305 304 304 304 304 300 297 298 298 298 297 298 297 295 295 295 295 306 304 303 304 301 307 307 310 306 310 309 307 305 302 307 307 305 304 303 301 300 300 301 300 300 299
305 305 305 304 304 304 304 297 297 299 300 305 299 295 296 295 296 296 297 299 298 300 302 306 308 309 302 307 305 306 306 304 307 307 305 302 302 301 301 299 298 298 297 297
305 305 305 305 304 304 304 298 297 298 301 303 299 295 295 295 296 296 297 298 301 303 307 308 308 302 302 299 301 305 303 307 308 309 304 304 302 299 299 299 298 297 296 295
304 304 303 303 303 303 301 301 297 297 298 303 304 295 296 295 295 296 296 295 297 299 303 301 298 296 300 305 306 304 301 300 300 303 298 298 297 296 296 297 296 295 294 294
304 303 303 298 299 299 298 299 297 296 297 301 301 300 296 293 295 296 297 295 296 299 298 299 299 299 299 302 305 301 297 298 297 296 298 299 297 299 296 295 294 293 292 291
303 303 302 300 300 298 297 296 296 295 295 297 300 300 298 294 298 300 295 298 297 297 297 296 298 297 297 302 302 297 297 297 297 296 294 295 294 294 294 293 292 292 291 289
301 302 301 300 299 297 296 295 295 294 295 301 298 304 305 295 296 297 298 296 302 295 299 298 297 299 301 301 298 297 297 299 299 295 294 294 295 294 293 291 290 289 289 289
299 298 297 298 295 296 296 295 296 296 294 294 300 294 300 297 297 298 299 296 299 302 299 296 299 301 299 297 296 295 296 296 296 295 294 293 292 292 291 290 289 288 288 288
297 296 296 295 296 295 293 297 297 295 296 295 294 295 297 294 300 300 297 298 296 302 299 300 301 301 299 295 295 294 295 295 294 292 291 292 291 290 290 289 288 288 287 287
297 296 295 295 293 293 295 294 292 294 298 293 296 295 296 294 294 298 296 299 296 302 295 298 301 301 296 294 295 294 295 294 292 290 290 290 289 289 288 288 288 287 286 286
296 293 293 293 293 293 295 295 295 294 294 293 294 297 295 293 294 295 296 298 299 295 297 299 299 295 294 294 293 292 291 292 291 290 289 288 288 287 287 287 286 285 285 285
296 294 292 295 294 294 296 297 297 293 294 294 295 294 296 295 297 295 297 296 296 295 296 300 299 295 294 293 292 291 291 290 289 289 288 287 286 286 285 285 285 284 285 285
296 293 295 294 293 290 288 287 291 291 293 293 294 293 294 295 295 295 295 295 296 296 300 299 295 292 292 292 291 291 291 290 289 287 286 285 284 284 284 284 284 283 283 283
290 287 290 289 290 291 290 289 291 290 293 291 293 293 294 296 296 295 296 296 298 301 295 294 291 291 291 291 290 290 289 288 288 287 286 286 285 285 284 283 283 283 282 282
294 292 288 291 290 291 291 289 291 290 293 297 293 292 296 291 294 294 293 297 299 295 291 289 291 291 290 289 288 287 287 287 287 285 285 284 283 282 282 283 283 282 281 282

GFSNW_925_thetae_081.txt.gz
Theta_e
304 303 305 304 303 303 304 304 304 303 302 304 306 311 310 307 310 310 310 310 311 313 313 315 316 317 316 313 314 316 314 317 320 318 315 314 317 315 315 320 319 318 320 318
303 303 305 305 304 303 304 303 301 302 304 310 311 310 309 309 310 311 311 312 311 312 314 316 316 316 313 313 314 315 313 317 324 321 318 317 317 315 315 315 318 316 321 318
303 303 303 304 305 304 306 306 306 304 303 307 310 310 308 310 311 312 311 312 312 313 315 315 316 316 314 313 314 310 313 315 317 321 319 317 318 316 315 317 321 315 316 315
303 303 302 305 304 304 306 306 307 306 310 309 311 310 309 310 312 312 311 312 312 313 315 316 316 315 314 313 311 312 315 316 315 313 314 316 316 316 315 316 314 316 315 315
303 302 303 305 305 305 305 308 308 307 307 308 311 309 309 310 312 312 312 312 311 312 314 314 315 313 313 314 313 313 313 317 314 318 313 315 316 315 316 315 315 313 314 315
303 303 304 304 305 305 306 306 306 308 308 310 311 310 309 311 312 311 311 311 312 313 313 312 312 312 311 311 313 313 314 316 319 318 312 313 316 311 314 315 314 314 315 314
303 304 305 305 304 305 306 305 306 308 310 311 310 310 310 311 312 312 311 311 312 309 308 310 311 312 312 311 311 311 313 313 316 319 315 319 310 308 309 311 313 312 312 312
305 306 306 304 305 304 304 302 306 308 311 310 310 310 311 311 311 311 310 309 308 307 309 313 314 313 314 313 311 311 311 312 313 318 315 311 309 309 311 312 312 310 311 310
305 306 305 304 303 301 301 299 301 308 310 307 301 310 311 312 312 312 309 308 308 309 310 311 313 314 312 313 312 311 312 311 314 313 313 311 311 309 307 309 312 308 309 309
305 305 303 304 304 303 300 298 299 307 308 300 301 309 309 308 311 312 310 310 311 309 312 312 312 312 309 312 311 312 313 313 314 313 314 312 308 308 307 312 311 307 307 308
305 305 305 304 302 300 301 298 299 304 305 299 299 299 305 307 310 312 311 311 312 312 312 312 311 311 310 310 309 310 312 313 313 312 314 312 306 307 310 308 305 306 306 306
304 304 304 303 303 299 300 301 298 299 303 300 296 296 296 296 298 306 308 310 311 311 311 311 310 310 309 310 311 307 311 311 311 310 311 307 307 308 305 305 306 305 305 304
305 304 304 304 304 304 300 300 299 302 303 301 301 300 297 296 296 296 308 309 307 308 305 310 310 311 309 310 310 310 308 306 309 309 309 307 306 305 304 303 304 303 303 302
306 305 304 304 304 304 304 299 298 302 305 309 302 297 298 296 297 297 298 301 302 304 306 310 310 310 306 309 308 308 308 307 309 309 308 306 305 304 304 302 301 301 300 300
305 305 305 305 304 304 304 299 298 298 304 308 304 298 297 297 298 299 300 302 304 307 310 311 310 306 306 305 305 308 306 308 309 308 307 306 305 302 302 302 301 300 299 298
304 304 304 304 304 304 302 304 298 297 300 307 308 299 299 298 298 299 299 299 302 304 307 308 304 300 304 308 308 307 306 305 304 306 301 302 300 299 299 301 299 297 297 296
304 303 302 299 300 301 301 302 299 297 298 305 306 306 298 296 298 300 301 300 301 303 304 304 304 303 303 307 307 305 302 303 301 300 300 301 300 301 298 298 296 295 294 293
303 303 300 299 299 298 299 296 296 296 299 302 307 306 301 297 302 304 299 302 302 301 302 300 302 300 301 305 305 301 299 299 300 300 298 298 298 297 297 296 295 294 292 291
303 303 301 300 300 300 298 295 295 294 298 307 304 309 309 298 300 301 301 300 305 300 303 302 300 303 305 305 304 301 300 300 301 298 297 297 297 297 296 294 292 291 291 291
302 299 300 302 297 297 296 297 299 300 299 298 303 300 304 301 301 302 303 301 304 306 303 299 301 304 304 301 298 298 299 299 299 298 297 295 295 294 293 292 291 290 290 290
298 299 300 296 296 297 297 301 302 301 301 299 299 300 300 297 304 305 301 305 302 305 304 302 305 304 302 299 299 298 298 298 298 296 295 295 294 293 291 291 290 290 289 289
298 298 296 296 297 298 299 303 297 297 303 296 298 298 299 297 297 302 299 303 299 305 299 302 304 306 300 298 297 297 298 297 295 293 292 291 291 290 290 290 289 289 288 287
296 296 298 300 297 299 299 301 302 299 297 296 297 298 297 295 297 299 299 301 302 297 300 303 305 300 297 297 297 296 297 296 294 292 291 290 289 289 289 289 288 287 287 287
300 300 299 301 300 299 302 301 302 297 297 297 299 297 299 297 299 298 300 299 297 300 300 302 305 299 297 296 296 295 295 293 292 292 290 289 288 287 287 286 286 286 286 286
300 297 301 300 299 295 295 292 294 294 296 297 297 297 298 298 298 298 298 297 299 300 305 308 302 297 296 295 294 295 294 293 292 290 288 287 286 286 286 286 285 285 285 284
295 295 296 293 295 297 294 294 295 294 296 295 297 298 298 300 300 298 299 300 302 306 302 300 295 294 295 295 294 293 292 292 291 289 289 288 287 286 286 284 284 284 283 283
296 297 294 296 295 299 296 294 294 294 296 300 299 298 300 295 298 298 299 301 306 303 296 294 295 294 294 293 292 290 289 289 289 288 287 286 285 283 283 284 284 283 282 282

GFSNW_925_thetae_084.txt.gz
Theta_e
303 304 305 306 305 304 303 302 305 303 302 306 305 308 310 308 310 311 311 311 313 314 314 316 316 317 316 313 314 315 314 316 319 318 315 314 316 315 314 317 318 317 316 315
303 304 304 305 305 304 303 303 302 302 303 310 309 310 310 311 311 312 312 312 312 312 315 317 315 316 313 314 314 313 313 315 320 318 316 316 316 313 315 316 318 314 318 314
303 304 304 305 305 305 306 306 305 305 305 308 309 310 310 312 312 312 312 312 312 314 315 315 316 316 314 313 313 312 312 313 315 316 317 316 316 314 313 315 314 314 314 313
304 303 303 304 305 305 306 307 307 306 310 311 311 309 311 313 313 312 311 312 312 313 315 315 315 314 314 313 312 312 314 313 311 313 315 315 315 315 314 313 312 313 313 313
304 303 304 304 305 306 306 308 309 308 308 309 310 309 312 312 312 312 312 313 313 313 314 314 314 313 313 313 313 313 313 313 314 311 313 313 312 312 314 315 314 312 313 313
304 305 305 304 305 307 307 307 307 308 309 311 309 309 311 313 312 311 311 312 313 312 311 311 311 310 310 310 311 312 313 313 312 314 312 312 313 310 312 314 313 312 315 313
305 305 305 304 305 307 307 306 307 310 310 310 309 311 311 312 312 312 311 310 312 309 307 308 311 311 310 310 309 309 312 312 312 312 313 313 309 308 309 310 312 312 311 311
306 306 305 303 303 302 304 303 306 310 310 309 309 310 311 311 310 311 310 308 307 307 308 313 313 312 313 312 310 310 309 310 310 311 310 309 308 309 310 310 312 310 310 309
305 303 302 303 304 301 302 301 303 308 309 305 303 310 311 310 311 311 309 308 308 308 310 310 312 312 311 312 311 310 311 310 311 311 312 312 310 308 307 308 310 308 309 308
304 304 304 302 300 300 302 301 301 305 305 301 301 307 308 309 311 311 310 310 311 309 311 310 311 310 309 311 310 310 311 310 311 311 311 311 308 307 307 311 309 307 307 307
305 304 303 303 300 301 302 300 301 303 302 299 300 300 304 306 308 311 310 310 310 311 311 310 309 309 308 309 309 309 310 310 311 310 312 309 306 307 310 306 305 306 306 305
304 303 303 304 304 302 302 301 301 301 301 299 298 297 297 297 298 300 307 309 310 308 310 309 308 308 307 308 308 307 308 308 308 308 309 306 305 306 304 304 304 305 305 303
305 304 304 304 304 304 300 300 301 304 301 300 299 300 297 297 297 297 305 306 305 308 304 308 308 310 306 307 307 308 307 305 306 307 307 306 304 304 303 303 304 303 301 301
305 304 304 304 304 304 302 299 300 303 306 307 301 298 299 298 298 298 298 300 303 303 304 308 308 308 305 307 305 305 306 305 306 306 306 304 304 304 302 301 300 300 299 299
306 305 305 305 305 304 303 299 298 299 303 306 302 298 298 298 299 300 300 301 303 305 307 307 307 304 304 303 302 303 303 305 305 305 304 304 302 301 301 301 300 300 299 297
304 305 305 304 304 304 303 304 300 297 301 304 305 299 299 298 299 300 300 299 301 302 304 305 301 299 301 304 304 305 303 303 301 303 301 300 299 299 299 300 298 296 296 295
303 303 303 303 303 303 301 301 297 296 299 303 304 303 298 297 298 300 300 300 299 300 302 302 301 300 299 303 305 304 303 301 299 298 298 300 299 299 297 296 295 295 294 293
303 303 299 299 299 300 300 298 297 296 299 301 301 303 299 297 301 302 298 300 300 300 300 298 299 298 298 301 302 299 298 299 298 298 297 297 296 296 295 295 294 293 291 290
303 303 300 300 300 301 300 298 297 295 296 300 300 302 303 297 299 299 299 298 301 298 300 299 298 300 300 301 301 299 297 298 298 296 295 295 296 295 294 294 291 290 289 289
303 300 299 301 299 298 297 299 299 298 297 296 299 298 300 297 299 301 301 299 301 298 300 296 298 299 301 300 299 298 297 298 296 295 294 294 293 293 292 291 289 289 288 288
299 300 299 298 297 297 297 299 299 299 299 298 297 296 296 295 300 302 299 300 298 298 298 298 300 301 300 299 295 295 296 296 296 295 295 293 292 291 289 289 289 289 289 288
299 299 297 297 297 297 295 296 296 296 299 295 296 296 296 295 295 300 298 299 296 298 297 298 300 300 297 296 296 295 295 295 292 292 290 290 290 290 289 289 288 288 288 287
296 297 295 297 295 296 296 295 296 297 295 294 294 295 295 294 295 297 297 297 297 295 294 299 300 298 296 295 294 294 294 292 291 290 290 290 289 289 288 288 288 287 287 287
298 295 294 295 295 296 299 299 299 294 295 294 296 294 296 295 296 297 296 298 296 293 293 298 297 295 294 294 294 294 293 290 288 288 289 288 288 288 287 286 286 286 285 285
296 294 295 297 296 293 291 290 291 291 293 294 294 293 295 295 296 296 295 293 290 295 297 297 295 293 293 293 293 293 292 290 289 288 286 287 287 286 286 286 285 285 284 284
293 293 293 293 293 292 290 289 292 291 294 291 293 294 293 295 295 294 292 294 295 299 297 293 290 292 292 292 292 292 291 290 289 288 288 287 286 285 286 285 284 284 283 283
297 295 294 294 292 295 293 293 293 293 293 295 294 293 294 291 292 294 295 295 297 298 294 290 292 292 291 291 290 290 290 289 288 288 287 286 285 284 284 282 283 283 282 282

GFSNW_925_thetae_087.txt.gz
Theta_e
303 303 305 306 303 303 302 301 303 302 302 305 305 308 308 307 311 310 310 310 313 312 313 315 316 316 316 313 313 315 314 314 313 317 314 313 314 315 311 314 315 312 313 317
303 303 304 305 304 302 302 302 303 303 303 303 305 309 311 311 311 311 311 311 311 312 315 315 314 314 313 313 313 313 311 312 313 313 311 312 314 312 312 314 311 313 313 316
304 304 304 305 305 306 305 303 304 303 305 305 307 308 310 311 311 311 311 311 311 312 314 313 315 315 313 312 312 312 311 310 311 312 314 314 314 313 312 311 310 312 312 312
305 305 304 304 305 306 306 302 301 303 302 306 306 308 311 312 312 310 309 310 311 312 314 313 314 313 313 312 312 311 310 310 307 311 314 312 311 313 313 312 311 311 312 313
306 305 304 304 305 306 306 302 303 303 303 306 307 308 311 311 311 310 311 312 311 310 311 310 312 311 311 312 309 311 310 308 311 307 311 310 309 309 312 313 312 310 310 312
306 304 304 304 307 307 305 306 306 302 306 305 306 308 310 311 311 310 309 310 310 310 309 307 306 308 307 309 310 309 311 308 306 309 310 310 309 308 310 312 311 312 313 311
306 304 303 303 303 305 306 304 304 303 306 306 307 310 310 310 310 311 308 307 309 308 305 305 308 309 308 308 307 306 309 308 304 305 309 308 307 307 308 309 311 310 309 309
302 303 303 304 304 302 304 302 302 303 305 305 307 309 309 308 307 309 308 307 306 304 307 309 310 309 311 310 309 309 307 307 306 307 305 307 307 308 309 311 310 308 309 307
303 303 302 302 301 302 303 302 302 301 302 303 301 305 308 307 308 307 309 307 306 307 308 306 309 309 310 309 307 307 308 307 307 308 310 310 308 307 306 307 309 306 307 306
304 303 303 301 301 302 303 301 302 303 299 297 299 303 305 305 307 306 308 308 307 307 306 307 308 306 307 309 309 307 307 307 308 307 308 308 307 306 306 309 305 306 306 305
304 303 303 304 303 302 302 301 301 302 296 296 298 298 300 303 304 307 306 308 307 307 307 307 306 306 306 307 307 308 308 306 308 306 308 305 305 305 308 304 304 304 305 304
304 303 303 304 304 301 302 302 302 301 297 297 298 297 297 297 297 299 303 306 306 305 307 304 303 306 303 304 305 305 304 305 307 305 306 303 302 305 303 302 302 303 303 302
304 303 303 303 304 303 300 300 301 303 296 297 298 299 298 298 298 298 304 303 302 304 301 304 305 306 302 305 303 306 304 303 304 304 304 304 303 303 301 302 302 300 299 299
305 304 304 304 304 304 301 299 299 302 301 302 300 298 299 298 298 298 298 298 300 300 300 304 304 305 301 303 303 303 302 303 303 303 303 304 303 301 300 300 298 297 297 297
304 305 305 304 304 304 303 299 297 299 301 302 299 298 298 298 299 299 299 299 300 301 303 302 304 300 301 299 299 300 300 303 304 303 301 302 302 299 300 298 298 297 296 295
302 304 305 304 304 303 303 299 301 298 301 297 300 298 298 298 299 299 299 298 298 298 302 302 298 297 299 300 301 301 300 300 300 302 300 299 298 297 299 298 296 295 294 293
301 303 302 301 302 303 301 299 298 297 299 299 300 299 296 297 297 297 297 298 297 298 299 299 299 298 297 299 302 302 301 299 298 297 298 299 298 298 296 294 294 295 293 292
301 303 300 299 299 300 301 299 298 297 298 297 299 297 296 296 298 299 295 297 296 297 298 296 297 296 295 299 299 300 299 297 297 297 296 297 295 294 293 293 292 292 290 288
302 303 299 299 300 299 300 298 297 296 296 294 295 291 294 294 296 296 297 295 297 295 298 297 297 297 298 300 298 299 296 298 297 295 294 294 295 294 293 293 292 289 288 288
303 301 299 297 299 298 297 298 295 293 292 292 294 290 295 294 295 298 297 296 297 294 298 295 297 298 298 299 297 298 296 296 295 294 294 294 293 293 293 291 289 287 287 287
299 297 295 298 296 297 293 293 293 294 294 294 293 292 293 293 296 298 297 296 292 293 295 297 297 302 298 296 297 295 294 294 294 295 294 293 292 291 290 288 288 288 288 287
299 298 297 296 294 291 291 288 292 293 296 293 292 294 294 293 292 296 295 295 292 293 293 295 297 299 296 294 294 294 294 293 292 293 292 291 290 289 287 287 287 288 288 287
297 296 290 292 290 292 291 292 289 290 292 290 290 291 293 292 293 295 294 294 296 292 290 295 295 295 295 294 293 293 292 291 289 289 289 289 288 288 288 287 287 287 286 286
293 290 291 292 289 290 292 291 290 291 290 292 292 291 293 293 293 294 292 295 294 289 289 294 293 295 294 292 292 292 291 289 286 287 288 287 287 287 287 287 286 285 285 285
291 290 292 291 292 286 284 282 286 287 290 292 292 290 292 291 293 294 292 290 289 290 292 292 290 292 292 292 292 292 290 288 287 287 286 287 286 286 286 286 285 285 284 283
290 290 290 291 288 286 285 282 286 286 291 287 290 289 289 292 291 291 291 289 290 291 289 291 288 291 291 292 291 291 291 289 288 287 287 286 285 284 285 285 284 284 283 282
297 295 291 289 286 289 289 288 289 290 291 290 289 289 293 289 287 291 291 291 291 292 291 286 289 290 290 290 291 290 290 289 288 288 287 287 286 284 284 282 283 283 282 282

GFSNW_925_thetae_090.txt.gz
Theta_e
305 305 305 305 303 302 302 301 302 301 302 302 304 308 307 307 310 310 311 309 311 311 312 314 315 315 313 312 313 315 313 313 313 315 312 313 313 315 311 315 315 310 312 316
305 304 304 304 303 302 302 301 301 302 303 301 302 307 309 309 310 310 311 311 310 311 313 314 313 313 312 312 312 313 310 311 313 312 308 311 313 312 311 311 308 311 311 314
305 304 304 304 305 305 303 300 299 300 302 302 305 307 309 310 309 310 310 310 310 312 313 312 314 314 313 311 311 311 310 309 310 308 312 312 313 311 311 308 307 311 310 311
305 304 305 305 305 305 305 298 298 301 303 305 305 305 309 310 311 309 309 310 310 312 313 312 312 311 312 311 311 310 309 310 306 310 313 310 309 310 311 310 310 311 311 311
304 302 302 305 306 306 305 301 302 300 302 304 305 306 309 310 310 309 311 310 309 308 309 308 310 309 310 311 308 310 307 307 310 306 310 308 308 308 310 311 310 310 311 312
302 303 303 303 304 307 304 304 304 301 304 303 306 308 310 310 309 309 307 309 309 309 308 306 305 305 305 307 309 308 309 307 304 306 307 309 306 307 310 311 310 310 312 310
303 303 303 303 303 304 305 303 303 302 306 305 307 310 309 309 309 310 308 306 308 308 304 305 306 307 308 307 307 305 308 307 302 303 306 303 304 306 307 309 310 309 309 308
303 302 302 302 303 303 303 302 302 301 304 302 306 308 308 308 306 308 308 307 305 303 306 307 307 307 308 308 307 307 305 305 304 306 304 303 307 307 308 309 310 307 308 306
303 302 303 302 302 302 303 303 303 300 302 303 299 303 306 306 306 305 308 306 305 305 306 304 308 308 309 308 306 303 305 304 306 305 309 308 306 306 306 306 306 305 306 305
303 303 303 302 302 303 303 301 303 301 299 296 299 303 304 303 305 305 304 306 306 305 304 306 307 305 306 308 308 307 305 305 307 306 306 305 305 305 305 308 301 305 305 304
303 303 303 303 301 303 304 301 301 301 296 296 298 298 300 302 303 306 304 306 305 305 306 306 305 305 304 304 304 306 304 304 306 305 307 304 303 304 305 301 303 303 303 303
304 303 304 304 302 302 303 302 303 301 298 297 297 298 298 298 298 300 301 304 305 304 305 303 301 305 301 302 303 303 305 303 305 303 304 301 301 303 302 300 301 303 302 301
304 303 303 304 303 302 304 302 303 302 296 297 297 298 298 298 298 298 303 301 300 303 299 302 303 305 301 304 302 304 303 301 304 304 301 302 302 302 301 301 301 300 300 299
304 304 304 304 303 302 302 301 302 303 300 302 300 298 298 298 298 298 298 298 299 299 298 302 302 305 300 302 301 302 301 301 302 302 301 301 302 300 300 299 298 298 297 297
303 304 305 305 303 302 300 299 298 301 303 302 299 297 298 298 298 298 298 298 298 299 301 300 303 299 300 297 297 298 299 302 303 302 300 301 301 299 297 297 297 296 295 294
302 302 303 304 302 301 302 298 300 298 302 297 300 297 297 298 298 299 298 297 296 297 300 300 297 296 299 299 299 300 298 298 299 301 299 299 298 297 297 297 296 295 294 293
300 302 303 301 300 301 300 299 299 298 300 298 298 296 296 296 296 296 296 296 296 297 298 298 297 297 297 297 300 300 299 298 298 297 297 299 297 298 296 295 294 295 292 292
300 302 301 299 299 299 299 298 297 296 299 295 294 295 295 296 296 298 293 296 294 295 297 295 297 295 295 299 298 299 299 298 297 296 296 297 294 293 293 292 291 290 289 288
301 302 300 299 299 298 298 297 297 296 296 293 291 293 294 294 295 294 295 294 297 294 297 296 296 298 298 300 299 298 296 297 297 294 294 294 294 293 292 291 291 290 288 286
302 302 299 296 299 298 297 297 294 291 291 291 293 289 296 294 294 297 296 294 297 294 297 294 297 298 298 297 296 297 297 295 293 294 293 293 293 292 292 291 289 287 287 287
301 297 295 298 296 297 292 293 293 293 294 293 291 291 294 292 296 297 296 291 290 293 294 297 296 298 298 296 294 293 295 293 294 295 295 292 292 292 291 289 287 287 287 287
300 299 297 296 293 290 291 288 291 292 295 292 292 293 293 292 292 296 294 294 290 295 290 293 295 294 295 294 293 293 292 292 293 294 293 291 291 291 289 287 287 287 287 287
298 295 289 292 288 292 291 291 289 288 290 289 289 291 292 292 293 294 294 295 296 291 288 293 293 292 292 292 292 293 292 291 290 290 290 290 289 289 288 287 287 287 286 285
291 290 292 292 288 291 292 291 289 290 289 289 290 290 292 292 293 293 291 295 293 288 289 293 289 291 293 291 291 292 292 289 287 286 287 287 287 287 287 287 287 286 285 284
292 289 292 290 290 285 284 282 285 286 289 290 291 289 291 291 293 294 291 290 289 290 292 290 288 292 290 290 291 291 290 288 287 287 286 286 287 286 285 286 285 285 284 283
288 290 289 290 289 283 283 281 284 285 290 287 290 288 289 292 292 291 291 289 290 292 287 289 287 292 290 289 290 290 289 287 287 287 287 287 286 285 285 285 284 284 283 282
298 295 291 293 291 291 289 288 289 289 291 291 289 289 293 290 288 292 291 290 291 289 288 286 289 290 289 288 289 289 290 289 288 287 287 287 286 285 284 282 283 283 282 282

GFSNW_925_thetae_093.txt.gz
Theta_e
304 304 303 303 302 302 301 300 299 302 303 301 305 309 309 308 310 309 310 309 309 310 312 313 314 313 311 311 312 314 312 312 312 314 312 311 313 314 312 313 314 310 313 317
304 304 304 303 302 304 302 298 298 302 302 301 305 306 309 308 310 309 310 310 310 311 312 314 312 312 311 311 311 312 310 310 310 309 307 310 312 310 310 309 307 311 312 313
304 304 304 304 303 305 303 297 300 300 299 299 305 305 308 310 308 309 308 309 310 311 312 311 313 313 312 310 310 310 308 308 309 307 312 311 311 309 309 307 306 310 310 312
302 304 304 305 305 305 304 296 298 300 303 304 304 305 308 310 310 308 307 309 308 310 312 310 309 309 309 310 309 310 307 309 305 309 309 310 308 308 309 309 309 309 311 311
303 303 303 304 305 305 304 301 302 299 301 301 304 306 309 310 309 308 310 310 308 307 309 308 310 308 308 310 307 309 306 306 309 305 308 307 309 306 309 310 310 310 310 312
302 303 304 304 305 306 304 302 302 300 303 302 306 307 309 309 308 308 307 308 308 308 308 305 305 304 304 305 308 307 308 306 304 304 306 307 305 306 309 310 310 310 312 309
303 301 303 304 304 305 305 303 301 301 305 303 304 308 308 307 307 309 307 306 308 307 303 303 304 303 304 306 306 304 306 306 301 303 304 305 302 305 306 308 309 308 309 308
303 303 302 304 304 304 305 303 302 300 303 301 304 304 307 304 304 305 306 306 305 302 303 306 306 306 306 307 305 306 304 304 303 304 304 303 305 305 306 308 308 306 308 306
303 304 302 302 303 304 305 305 304 299 301 301 300 302 303 304 304 303 306 304 304 303 303 303 308 306 307 306 305 303 303 302 305 304 307 305 304 306 305 304 302 304 305 305
303 303 303 301 302 303 305 304 305 301 300 296 298 303 304 302 303 303 302 304 305 303 303 306 306 304 304 306 306 306 304 304 306 306 306 304 302 304 304 305 300 303 303 303
304 302 303 303 300 302 303 302 303 303 297 296 297 298 300 301 301 306 304 304 304 303 305 306 304 304 303 303 302 305 303 303 305 303 306 303 302 304 304 300 302 303 303 302
304 303 303 303 302 300 302 303 303 302 300 298 298 298 299 299 299 300 300 304 303 302 304 301 300 304 300 300 303 300 305 302 302 303 303 299 300 302 301 299 301 302 302 301
303 304 303 303 303 299 301 302 302 301 296 296 296 297 298 298 298 299 303 300 300 301 298 301 301 305 300 304 300 302 301 299 303 303 300 299 300 300 301 299 300 300 300 299
301 304 304 304 304 301 300 301 301 303 299 301 300 297 297 299 298 298 298 298 298 298 297 300 301 304 299 301 300 300 300 300 302 300 300 299 299 298 300 299 298 298 297 297
301 303 304 304 304 302 300 299 299 301 302 301 299 297 298 298 298 298 297 297 297 298 300 299 302 298 298 296 296 297 298 301 302 302 299 299 299 299 297 297 297 296 296 294
299 302 303 304 303 302 302 297 300 297 300 296 300 296 296 297 297 297 297 297 295 296 298 299 297 295 299 299 299 298 296 297 298 301 298 298 298 298 296 297 296 295 294 293
299 301 303 301 301 301 300 298 298 296 299 296 297 296 295 296 296 295 295 295 294 296 297 297 297 297 297 297 300 300 298 297 297 297 297 300 297 298 295 295 295 296 293 292
298 300 302 299 299 299 299 298 297 296 298 294 293 293 295 295 295 297 292 295 293 294 296 295 296 295 295 299 298 297 297 297 297 295 295 297 295 293 293 292 291 291 290 288
300 301 301 299 299 298 299 298 297 297 295 293 290 292 294 293 294 294 294 293 296 293 297 296 296 296 297 300 298 298 298 298 298 294 294 294 295 293 292 291 290 290 289 287
302 301 299 296 298 298 297 296 294 290 291 290 292 289 295 293 293 296 295 294 296 293 297 294 296 297 297 297 296 295 295 295 293 294 294 294 294 292 291 291 290 290 287 286
302 298 295 297 296 296 291 293 293 293 294 293 290 290 293 291 295 296 295 290 290 293 294 297 296 297 295 295 294 292 290 291 293 294 295 293 293 293 291 291 289 287 287 287
301 298 296 296 292 289 291 289 290 292 296 291 293 293 292 292 291 296 294 293 290 294 290 293 295 294 293 293 292 291 290 291 292 293 293 291 292 292 291 289 287 287 288 287
298 295 290 291 289 291 290 295 289 286 289 289 290 292 292 291 293 293 293 294 296 291 289 294 293 293 292 290 290 291 291 291 291 292 292 291 290 291 290 286 287 287 286 286
295 294 293 292 288 291 292 291 289 289 288 290 290 290 293 292 293 293 291 295 293 289 292 294 291 291 291 290 290 291 291 289 287 288 288 287 287 287 288 288 287 286 285 285
296 292 295 291 291 285 283 281 285 286 289 289 290 290 291 290 292 294 291 290 290 292 294 292 289 290 291 290 290 290 290 288 286 285 284 284 286 285 286 287 286 286 285 284
292 287 289 288 289 291 289 282 284 285 289 286 289 289 290 291 292 291 293 291 292 294 288 289 286 291 290 289 289 289 289 288 287 286 286 286 285 284 285 285 285 284 284 283
299 295 290 292 293 296 292 289 289 288 291 290 288 289 293 290 289 293 291 292 292 290 287 284 288 291 290 288 288 289 289 288 287 287 286 286 286 286 284 281 283 283 283 283

GFSNW_925_thetae_096.txt.gz
Theta_e
304 304 303 302 302 303 302 298 301 303 303 302 304 308 309 308 309 308 310 308 309 310 310 312 314 312 310 310 311 314 311 312 312 313 311 310 312 313 311 312 312 310 312 316
304 304 304 303 302 304 302 297 298 304 303 303 303 304 308 308 309 308 309 310 310 310 312 314 312 312 310 310 310 312 311 309 308 307 307 309 311 310 309 308 306 310 310 312
302 304 304 304 304 305 303 297 301 300 299 298 304 305 307 309 307 308 307 308 309 311 311 310 312 312 311 309 310 311 308 307 310 308 310 310 310 307 308 307 305 309 309 312
302 302 303 305 305 305 303 296 299 300 301 304 302 305 307 309 309 307 306 308 307 308 311 309 309 308 308 309 308 309 306 307 305 306 306 308 308 307 308 309 308 307 309 310
302 301 302 305 305 305 304 301 302 298 300 300 303 305 307 308 308 308 309 309 308 306 309 308 309 308 307 309 306 308 305 306 309 304 307 307 308 307 308 310 309 310 309 310
302 301 302 304 306 305 304 301 301 299 301 301 305 305 307 307 306 307 306 307 307 308 308 305 304 304 303 303 306 306 306 305 303 306 304 305 305 305 309 309 308 309 310 308
303 302 302 302 304 306 306 303 301 301 304 303 304 306 307 306 306 308 306 305 307 306 302 302 302 302 302 303 304 302 305 305 300 302 302 302 302 304 306 307 306 307 307 307
303 303 301 302 302 304 306 305 302 299 302 300 303 304 305 303 302 306 306 306 305 301 302 305 305 304 305 306 304 304 302 303 303 303 302 302 304 303 306 307 307 305 306 306
303 303 303 301 302 302 303 305 305 300 301 301 301 302 303 304 303 303 304 303 302 301 301 303 307 304 305 305 302 302 301 301 304 304 306 304 301 305 305 303 302 303 305 305
304 302 303 303 301 302 301 303 303 301 300 296 297 303 304 301 302 302 301 304 304 301 302 305 305 303 303 305 305 304 302 302 305 305 305 304 300 304 303 304 299 302 303 303
303 303 302 303 303 301 302 301 302 300 298 296 296 297 299 299 300 304 303 302 302 302 304 305 304 303 301 302 300 304 302 301 303 302 305 303 301 303 303 300 301 302 302 301
301 303 303 303 303 300 302 301 302 301 299 298 298 299 300 300 301 300 299 302 303 302 302 300 300 303 298 299 303 298 302 301 300 302 302 299 299 301 300 298 300 301 301 301
299 303 304 303 303 301 299 301 301 301 296 296 297 297 299 299 299 299 302 299 299 300 297 299 300 304 300 303 299 300 299 297 301 303 300 299 298 299 299 298 299 300 299 299
298 302 304 304 304 303 299 299 300 302 298 301 299 297 298 298 298 298 298 298 298 296 296 299 301 303 298 300 299 298 299 298 300 299 299 298 297 296 298 298 298 298 298 297
297 301 302 304 304 304 302 301 297 299 301 300 298 296 297 297 297 297 297 297 296 297 298 297 301 298 298 296 295 297 297 300 301 302 299 299 298 298 296 298 297 297 296 295
297 298 301 302 303 302 302 297 300 296 300 295 299 296 296 296 296 296 296 296 295 295 297 298 296 295 299 299 299 298 296 296 297 300 298 296 297 297 296 297 297 295 295 294
296 298 301 302 299 299 301 298 298 296 298 296 297 295 295 295 295 294 293 294 293 295 295 296 296 296 297 297 300 300 297 296 295 294 297 299 297 299 295 296 295 297 294 293
296 298 301 301 299 298 299 300 299 297 297 294 290 293 294 294 295 296 291 294 292 294 296 294 296 294 294 299 299 297 297 296 295 295 293 296 295 294 294 293 292 292 291 289
297 300 301 300 299 297 298 297 297 297 295 292 290 292 295 292 293 293 293 292 296 293 296 295 295 296 298 301 299 298 297 298 298 295 293 293 294 294 292 291 291 291 290 287
300 301 299 296 298 298 297 296 293 290 290 289 291 288 293 292 293 295 295 293 296 293 297 293 296 298 297 297 296 295 295 294 293 295 294 293 294 292 291 291 290 290 289 287
301 298 295 298 296 296 292 293 293 293 293 292 291 290 292 291 294 297 295 291 291 293 294 296 295 297 295 295 294 293 292 290 291 293 295 293 293 292 291 290 289 289 288 286
301 299 297 295 292 290 292 290 290 292 295 291 291 292 292 292 291 295 293 294 290 295 289 294 297 295 294 294 293 292 290 289 289 290 292 292 292 292 290 290 289 288 288 287
300 295 293 293 291 292 295 296 293 288 290 288 290 291 291 291 292 293 292 293 297 290 289 294 294 293 292 291 290 290 290 290 291 291 292 292 292 291 291 288 289 288 287 287
296 296 297 295 290 293 295 295 295 292 289 290 289 289 291 292 293 293 292 295 292 288 294 295 292 291 291 290 289 290 293 291 287 287 289 288 288 287 290 290 288 287 285 285
297 294 297 293 292 286 286 285 289 288 289 290 291 289 291 290 292 293 291 291 291 291 294 294 290 290 290 291 289 289 290 289 288 286 283 282 286 285 285 287 287 287 286 285
294 292 290 289 288 287 286 286 289 288 290 288 290 289 289 292 291 291 292 292 293 294 289 290 286 290 290 289 289 289 289 288 287 287 287 286 285 284 285 286 286 286 285 284
297 297 291 290 290 294 293 291 291 289 292 294 290 291 295 289 286 291 293 294 293 291 288 284 287 291 290 288 288 289 289 288 288 287 286 286 286 285 284 281 284 284 284 284

GFSNW_925_thetae_099.txt.gz
Theta_e
304 304 304 304 304 304 302 298 303 305 304 303 300 307 308 308 308 308 309 307 308 309 310 311 313 312 310 309 311 313 311 312 312 312 310 309 312 312 310 313 313 312 312 316
302 303 303 304 304 305 302 297 298 305 305 304 298 303 308 307 307 307 307 309 310 309 311 313 312 311 310 309 311 311 310 309 309 306 306 308 311 309 308 307 306 310 312 313
302 302 302 304 305 305 302 298 302 301 298 297 303 305 306 308 306 307 306 307 308 310 309 309 311 311 310 308 310 311 308 306 308 308 308 309 311 308 307 307 307 309 309 312
302 301 302 304 305 305 302 297 299 299 302 303 301 304 306 308 308 306 306 307 306 308 310 309 308 308 306 308 308 308 306 307 304 306 305 307 308 308 307 305 306 307 308 309
302 302 302 303 305 304 304 302 301 296 299 298 304 304 305 307 307 307 308 308 307 306 308 308 309 308 306 307 305 307 303 307 308 305 306 306 307 306 304 308 309 308 308 308
303 302 302 302 304 304 303 301 300 299 301 301 304 305 307 307 306 306 306 306 306 307 307 305 304 303 303 304 305 305 305 304 303 306 303 304 306 304 306 308 307 307 310 307
303 303 302 302 302 303 302 303 300 300 304 302 304 305 306 306 305 308 306 305 306 305 302 301 302 302 302 301 302 301 304 304 300 304 301 301 302 304 306 307 306 305 306 306
303 302 303 302 302 303 303 302 300 299 302 300 302 304 305 303 302 304 305 305 303 300 301 304 304 302 304 305 303 301 300 302 303 303 302 301 302 301 304 306 305 303 305 305
303 302 302 303 301 302 302 303 301 299 299 300 302 303 303 304 303 302 302 302 301 301 300 302 306 303 304 305 302 300 300 300 304 302 305 303 299 303 303 303 302 301 304 304
303 303 302 303 303 301 302 302 302 299 300 296 298 302 303 300 301 301 299 303 304 300 302 305 304 302 302 304 304 302 301 301 305 305 305 303 299 303 301 304 299 301 302 303
301 303 302 303 303 300 301 302 301 301 297 296 295 298 299 299 299 303 300 301 300 301 304 304 303 303 300 302 300 301 301 300 302 301 304 303 300 303 303 300 300 301 301 301
298 302 303 303 303 303 300 302 301 300 298 298 298 299 300 300 301 299 298 300 301 300 301 300 300 304 296 297 302 297 301 300 299 301 301 298 298 301 299 296 300 300 300 300
296 299 303 304 303 303 301 299 300 300 295 297 296 297 298 299 299 300 302 298 298 299 296 298 299 303 299 302 298 300 298 296 300 302 300 298 298 297 297 297 298 299 299 299
296 298 302 303 304 304 303 300 299 301 297 299 299 297 297 297 298 298 299 298 297 296 295 299 300 302 298 299 298 297 298 297 299 298 298 298 297 295 296 296 297 298 298 297
298 297 300 302 303 303 303 302 300 298 300 299 298 296 296 296 296 297 297 297 295 296 298 297 300 297 297 295 294 295 295 298 300 301 298 298 297 297 297 295 297 296 297 296
301 296 298 301 302 303 302 297 299 297 299 294 299 295 295 295 295 296 295 295 294 294 297 297 295 294 298 299 298 297 295 295 296 299 297 295 295 295 296 297 296 296 295 295
302 296 298 301 301 300 300 299 298 296 297 295 296 296 294 295 294 292 292 293 292 294 295 295 295 296 297 297 302 301 297 296 295 294 296 297 296 298 296 296 296 297 295 294
301 296 298 301 301 299 299 299 299 297 297 294 291 293 293 294 294 295 290 293 292 293 295 293 295 294 294 299 300 298 297 296 295 294 292 295 295 295 295 293 292 292 292 290
298 297 300 301 300 297 297 297 297 296 295 293 291 293 294 291 292 292 293 292 295 292 296 295 295 296 299 301 299 298 297 297 298 296 294 292 292 294 293 292 292 293 291 288
298 300 300 296 297 297 296 295 293 290 290 290 292 288 291 292 292 295 294 293 295 292 296 292 296 298 297 297 296 296 296 295 294 296 293 293 293 292 292 291 291 291 290 287
301 298 297 297 296 295 291 293 293 293 294 293 291 291 293 291 294 296 295 290 292 292 293 295 296 297 296 294 294 293 293 292 291 291 292 294 293 293 291 291 290 290 289 287
300 298 296 295 293 290 292 290 290 292 296 291 291 291 292 291 291 295 293 294 291 295 289 296 298 295 294 292 294 294 290 290 290 289 289 290 292 292 291 290 289 290 290 289
300 296 294 294 292 292 295 298 292 290 291 288 290 292 292 290 292 293 293 296 298 289 287 293 293 293 292 291 290 290 290 290 290 291 290 291 292 292 291 289 291 291 288 287
296 297 298 295 290 292 295 295 294 292 289 290 290 289 292 292 294 293 294 295 292 290 295 294 291 291 292 289 289 289 292 292 287 286 289 290 289 289 290 291 290 288 286 286
297 296 300 295 292 286 285 285 289 288 290 291 290 289 291 291 293 293 291 291 292 293 295 292 290 290 289 290 289 289 290 290 289 288 285 283 286 286 287 290 289 288 287 286
294 295 291 288 285 285 284 285 292 289 292 290 291 290 290 293 292 292 293 293 294 295 290 290 286 288 288 289 288 288 289 289 289 288 288 288 286 285 286 287 287 287 287 285
296 296 292 288 286 288 289 291 292 290 293 296 294 295 297 290 287 290 292 294 297 293 290 285 286 289 289 288 288 288 289 289 289 289 288 288 289 287 284 282 285 286 286 286

GFSNW_925_thetae_102.txt.gz
Theta_e
303 302 302 303 305 305 305 305 314 305 306 314 309 312 311 309 310 309 310 309 311 312 312 314 315 315 313 312 314 316 313 314 317 316 312 311 314 315 312 317 318 316 316 319
303 302 302 304 305 304 303 308 308 306 308 316 312 309 310 309 310 309 310 312 312 311 314 315 314 314 311 312 314 314 313 315 318 312 311 311 313 312 310 311 312 317 318 319
303 302 302 304 305 304 302 309 315 312 307 304 309 311 311 311 308 309 308 310 310 312 312 312 313 313 312 312 313 311 312 313 314 315 313 313 314 312 310 313 316 315 315 315
303 302 302 303 304 305 303 307 309 304 314 310 309 309 309 311 312 310 309 310 309 311 312 311 311 310 309 311 310 311 311 315 311 311 311 311 312 312 311 311 312 314 312 314
303 303 302 302 304 305 305 309 309 302 306 303 309 309 310 310 310 310 311 311 309 309 311 311 311 310 309 310 308 310 308 315 310 312 309 310 311 311 310 310 311 312 311 312
303 303 303 302 303 305 305 301 301 305 304 308 309 309 308 308 308 308 308 308 309 309 309 308 308 308 308 308 309 309 310 312 312 314 307 307 310 309 310 310 311 312 314 312
303 302 303 303 303 302 304 301 302 307 309 308 309 308 307 308 307 310 308 307 308 307 305 304 305 306 307 307 308 306 309 309 310 315 309 311 306 306 308 310 311 311 310 310
303 303 302 302 302 303 303 303 303 306 308 306 306 306 307 306 305 307 307 307 306 304 305 309 308 308 307 307 306 307 306 309 312 313 310 308 305 303 307 308 308 309 311 310
302 303 302 302 302 301 303 302 302 302 306 306 304 307 306 308 308 307 305 304 303 304 306 308 308 307 305 307 305 303 304 306 310 308 309 305 304 305 305 306 308 306 307 309
299 302 303 302 303 301 302 302 302 302 306 302 303 308 307 305 306 307 304 305 307 303 308 308 308 308 305 307 307 306 308 308 311 311 310 308 305 306 305 307 306 304 307 309
296 301 303 303 303 302 301 301 301 302 304 304 299 301 304 304 305 308 304 306 305 306 308 308 307 308 306 306 306 305 306 307 308 308 310 310 304 305 307 306 301 305 306 308
300 298 303 304 303 303 300 301 300 301 302 304 299 299 300 301 303 306 303 305 306 306 307 306 306 308 304 304 306 300 305 305 306 307 308 303 305 307 306 302 305 305 306 306
302 296 300 304 304 303 302 299 300 300 301 303 300 302 298 299 299 301 307 304 303 304 301 305 306 308 305 308 306 305 303 301 304 306 306 304 303 304 303 303 304 304 303 304
303 300 298 302 303 303 303 301 300 301 300 305 305 298 298 298 297 298 299 300 298 300 301 306 307 308 304 306 305 303 305 301 304 304 304 304 304 302 302 302 301 301 301 302
303 302 297 300 301 302 303 302 301 299 302 306 305 297 295 296 296 297 297 298 300 303 305 305 307 304 303 303 301 304 303 304 305 306 305 305 304 300 300 301 301 300 301 301
303 302 298 298 301 302 301 301 299 297 299 302 305 297 296 294 295 296 296 297 299 301 304 305 303 299 303 308 308 306 302 302 304 305 301 301 300 299 299 300 301 300 300 301
303 302 299 297 301 300 300 301 297 296 297 300 303 304 296 295 295 295 296 295 299 300 302 302 302 302 302 306 308 306 304 302 302 300 299 301 300 302 299 299 299 299 298 298
303 302 297 298 301 301 300 299 299 298 297 296 302 302 297 294 298 299 294 298 297 298 301 298 301 299 301 305 306 304 301 300 300 299 298 300 297 297 298 297 297 298 298 296
303 299 297 300 301 298 297 296 296 296 296 301 298 303 306 294 296 297 296 296 302 297 301 300 299 303 302 305 305 304 302 301 302 298 297 297 296 297 297 296 297 298 298 295
301 298 300 300 297 296 296 295 296 296 296 294 298 295 300 297 297 299 300 297 302 303 302 296 299 303 302 302 301 300 301 299 298 298 299 297 296 297 297 296 297 297 297 295
299 299 298 297 296 295 294 298 298 297 299 297 296 296 299 294 301 302 299 301 299 303 301 301 303 302 301 299 297 297 297 298 298 298 298 297 297 297 296 295 295 295 295 293
300 298 297 295 294 295 298 298 295 296 301 296 296 295 296 295 294 301 296 301 296 302 294 298 301 301 299 297 296 295 294 294 294 293 293 293 294 294 295 294 295 294 293 291
298 297 296 297 297 297 299 299 299 298 296 293 293 296 296 293 294 297 298 300 300 294 297 300 301 299 295 294 293 293 292 292 293 293 292 292 292 293 293 293 292 293 291 291
296 297 300 299 299 296 298 299 301 297 294 293 294 294 296 295 298 297 300 299 296 299 299 301 302 298 297 294 292 292 293 293 292 292 292 292 292 292 292 292 292 291 290 289
296 297 302 300 297 293 292 292 292 291 293 294 295 294 295 296 298 295 295 295 298 299 303 303 301 296 293 291 291 292 293 293 293 292 291 291 290 290 291 291 291 290 289 287
296 295 300 293 294 294 290 290 294 291 294 293 295 296 297 299 297 296 298 298 300 302 298 299 294 293 292 292 291 291 291 293 293 292 291 292 290 290 290 290 289 289 288 286
295 297 296 295 293 298 294 292 294 292 295 299 297 298 301 293 296 296 296 298 300 300 298 293 291 293 293 292 291 290 290 292 292 291 291 290 290 289 287 288 288 287 287 287

GFSNW_925_thetae_105.txt.gz
Theta_e
303 303 304 304 305 305 307 312 317 309 308 317 314 315 313 309 311 311 312 312 313 314 314 316 316 316 316 314 315 316 315 316 319 318 316 315 316 316 314 317 321 319 318 320
303 303 303 304 305 305 306 312 314 311 313 320 317 312 312 311 312 312 313 314 314 314 315 316 315 315 313 313 315 315 314 317 320 316 314 313 315 315 314 313 314 318 320 319
303 303 303 304 305 305 307 313 319 315 312 310 314 314 314 313 311 311 311 312 313 313 314 313 314 314 313 313 314 312 312 315 315 318 314 313 314 313 312 313 318 318 316 314
303 303 303 303 304 306 308 312 313 309 317 312 313 313 313 314 314 312 311 312 312 313 313 313 313 312 312 313 312 313 313 316 315 313 312 312 312 313 313 313 314 314 314 314
303 303 303 303 304 306 309 313 312 308 310 309 312 311 312 313 312 312 312 312 311 311 312 312 313 311 311 311 310 311 311 315 313 313 311 311 312 312 312 312 312 312 312 313
303 302 303 302 303 306 309 307 306 308 308 311 312 311 311 311 311 311 310 311 311 311 311 310 310 310 311 310 310 311 311 313 314 315 310 310 310 310 310 312 311 311 313 313
303 303 302 302 302 303 307 305 306 310 311 310 311 310 309 310 310 312 310 309 311 310 307 308 308 309 310 310 310 310 311 311 312 316 312 314 309 308 309 310 311 311 312 312
301 303 302 303 302 302 305 304 307 309 310 309 309 309 309 309 308 309 310 309 308 307 308 310 310 310 309 310 310 310 310 311 313 314 312 310 308 306 309 311 309 310 311 311
297 302 303 302 303 301 303 303 303 307 309 309 306 309 309 310 309 309 308 306 306 308 309 309 310 308 307 308 307 305 309 310 312 311 310 307 307 306 307 308 309 309 308 309
300 298 303 303 303 302 301 302 302 306 309 307 306 308 309 308 309 309 308 308 309 307 309 309 308 309 307 308 308 309 309 310 312 312 312 311 308 307 308 309 309 306 308 309
303 297 300 304 303 303 300 302 301 304 309 308 303 305 307 307 308 308 308 309 309 309 310 308 309 309 308 307 308 307 308 309 310 310 312 312 308 307 307 308 305 308 308 310
303 302 296 302 304 303 302 303 300 301 303 307 301 303 303 305 306 308 308 309 308 309 309 308 308 308 308 306 306 305 307 307 308 309 310 307 307 309 308 305 307 307 308 308
303 303 298 298 303 303 303 301 299 301 304 307 303 304 301 299 300 303 308 308 307 307 306 308 308 309 308 308 308 307 306 306 306 306 307 307 306 306 306 307 306 306 306 306
303 303 302 297 300 301 302 302 302 300 303 307 307 299 299 298 298 299 302 304 302 304 306 309 309 308 307 307 307 307 307 304 305 306 306 306 306 306 305 304 304 303 303 304
304 303 302 298 297 299 302 302 301 301 302 307 306 302 298 296 297 298 299 301 304 306 307 308 309 308 307 307 306 307 307 306 306 307 306 307 306 303 303 303 304 303 303 303
304 303 302 300 297 300 301 304 299 297 298 303 306 300 298 296 297 298 299 301 303 305 307 308 308 305 306 308 308 308 307 307 306 306 304 304 304 302 302 302 303 303 302 302
305 303 303 299 297 300 302 304 299 296 296 301 306 307 298 297 297 298 299 299 302 303 305 306 306 305 304 308 308 308 308 307 306 305 304 302 302 303 302 301 301 301 301 301
306 303 303 299 298 300 301 300 301 299 299 299 306 307 300 297 301 302 298 301 301 302 304 303 304 304 304 308 307 307 307 306 305 304 303 303 302 300 300 300 300 300 300 300
305 303 301 298 300 301 299 297 297 297 298 305 303 306 311 296 299 299 298 300 303 301 302 303 303 305 306 307 306 306 307 306 305 302 303 301 300 300 300 299 299 299 301 300
304 301 299 300 298 297 296 296 298 298 299 298 301 301 304 300 300 302 302 300 304 304 304 300 301 303 304 305 305 305 305 304 303 301 300 300 299 299 299 298 299 299 299 298
301 299 299 297 296 296 297 301 301 302 301 301 300 301 304 297 303 304 302 305 303 305 305 302 306 306 304 302 302 302 303 301 301 301 301 300 300 299 299 298 297 297 297 296
301 299 297 296 296 298 300 302 299 299 303 302 300 299 299 298 297 302 300 303 300 304 298 301 303 305 303 301 299 298 297 297 298 298 297 296 295 296 296 297 297 296 296 296
299 297 296 298 300 300 302 301 302 302 301 297 296 299 299 296 297 301 301 302 302 297 300 303 304 304 301 298 296 296 294 294 294 295 295 295 294 294 294 295 295 295 295 294
297 298 301 301 304 300 303 303 306 302 299 297 299 299 300 299 300 301 302 302 299 303 302 304 307 304 301 299 296 294 295 295 294 294 295 294 293 294 294 294 294 294 294 293
297 297 303 301 301 300 299 298 296 294 296 296 297 298 298 300 301 299 300 299 301 303 306 308 307 299 297 295 293 294 294 296 295 295 293 292 293 292 293 293 293 292 292 290
296 296 299 298 299 302 296 296 298 295 296 296 298 299 299 301 300 300 301 303 304 309 305 304 300 298 296 295 293 293 293 294 294 294 294 294 294 293 293 293 292 291 291 289
296 298 298 301 303 303 304 299 298 295 297 301 300 301 301 296 300 300 301 303 306 306 305 301 297 296 297 295 293 292 291 292 294 293 293 293 293 291 290 291 292 291 290 290

GFSNW_925_thetae_108.txt.gz
Theta_e
303 303 304 305 306 306 308 314 316 311 308 317 314 315 313 309 312 312 313 313 315 315 315 315 316 316 315 315 315 316 314 316 317 318 316 314 315 316 315 313 321 316 316 314
303 303 303 304 306 306 309 314 315 313 312 320 317 313 312 312 313 313 314 315 314 314 315 316 315 315 313 314 315 315 313 316 314 316 313 313 314 314 314 312 313 313 315 316
303 303 303 304 306 306 310 315 314 318 313 311 314 315 314 314 311 312 312 313 313 314 313 313 314 315 314 313 314 311 312 314 314 314 314 313 314 313 313 311 311 315 314 314
303 303 303 303 306 308 312 313 313 309 320 313 313 314 314 314 314 312 312 312 313 313 313 312 313 313 312 313 313 312 312 313 312 313 312 311 311 311 312 311 311 312 312 311
303 302 303 303 305 310 309 313 312 309 310 310 312 311 313 314 313 312 312 312 311 311 312 312 313 311 311 311 311 311 311 312 312 307 310 310 310 310 310 311 311 311 311 311
303 303 303 302 303 308 309 308 307 308 308 311 311 311 311 312 312 311 310 310 311 311 311 309 308 308 309 310 310 309 310 311 309 311 311 310 308 309 308 310 310 311 312 310
300 303 302 303 302 305 308 306 307 311 311 310 310 310 310 310 310 311 310 309 310 309 307 307 307 307 308 309 309 308 310 310 309 309 310 310 308 308 309 308 309 308 308 308
297 302 303 302 302 302 305 305 307 309 311 308 309 309 309 309 308 308 310 310 307 306 307 309 309 310 309 310 309 309 308 309 308 309 310 308 307 306 307 309 307 307 308 308
301 298 303 303 303 301 305 303 304 307 309 308 307 308 309 309 308 309 308 306 306 307 308 308 310 307 307 308 307 305 308 308 309 309 310 309 307 305 307 308 304 307 308 308
303 298 300 304 303 303 302 303 302 306 309 306 306 307 309 308 308 307 307 307 308 307 308 308 306 307 307 306 307 306 307 308 309 309 310 309 307 304 307 306 305 306 307 307
303 302 297 302 303 303 303 303 301 302 306 306 304 305 307 307 306 306 307 308 308 308 308 307 307 307 306 305 305 306 307 307 307 307 309 308 305 306 305 304 305 307 307 308
304 303 301 297 302 303 303 303 301 300 301 305 305 303 304 304 303 306 307 308 307 307 307 306 305 306 304 304 303 304 304 304 305 306 307 305 304 305 304 303 304 306 306 306
305 303 303 298 298 300 302 302 301 302 303 305 303 304 302 302 302 302 306 306 305 306 303 306 306 307 305 305 304 305 303 302 302 304 303 303 303 304 303 304 303 303 304 304
305 304 302 302 297 298 299 302 302 301 303 305 305 300 300 299 299 300 301 302 303 304 304 306 306 307 304 304 303 304 303 303 303 302 303 303 303 302 302 302 302 302 301 301
307 305 303 302 300 297 300 302 301 300 301 304 304 303 297 297 298 299 299 300 302 303 305 304 306 304 305 304 303 306 303 304 304 304 302 302 303 303 302 302 302 301 301 300
308 306 304 303 301 297 302 303 299 297 298 301 303 299 298 297 298 299 299 300 301 302 305 304 305 303 304 303 303 304 303 304 303 303 302 302 302 301 301 301 300 301 301 300
308 306 304 303 301 298 302 303 299 297 297 300 302 303 297 297 298 298 298 299 299 300 302 303 303 303 302 303 306 305 303 303 303 302 304 303 301 301 299 299 300 300 300 300
307 306 304 303 300 298 300 300 300 301 299 299 301 302 298 297 299 299 298 299 299 299 300 301 302 301 301 305 304 304 303 303 302 303 302 301 300 300 300 299 298 298 298 298
306 305 303 300 299 300 299 297 297 298 298 301 300 302 306 295 298 298 297 298 301 299 301 301 300 301 304 303 303 303 303 304 304 301 300 300 299 298 298 298 297 297 296 297
305 303 300 299 299 298 297 297 297 296 298 296 299 299 301 297 298 300 300 298 301 303 301 298 301 302 301 302 301 301 301 302 302 301 299 298 297 297 297 297 296 296 296 296
302 299 299 298 297 296 297 299 300 300 301 298 298 297 299 296 300 301 300 299 301 303 299 299 300 303 302 301 298 296 296 298 300 299 298 299 299 298 297 296 295 295 295 295
301 300 297 296 296 298 299 301 298 299 300 299 298 296 296 296 295 298 298 300 299 301 295 299 300 300 301 298 296 296 295 294 294 295 297 297 296 294 294 294 295 295 295 295
299 297 296 298 299 301 302 301 300 300 298 295 294 295 296 294 295 298 298 298 300 295 294 298 298 299 299 297 295 294 293 291 291 292 294 294 294 294 294 293 294 295 295 295
298 299 302 300 301 300 300 300 300 297 296 296 297 296 299 298 299 300 300 300 297 296 300 298 298 301 296 294 293 293 292 293 290 288 291 292 290 291 293 294 294 294 293 294
298 297 300 300 297 296 295 293 293 291 295 294 294 294 296 297 300 298 299 298 297 296 298 298 298 297 295 293 292 291 291 291 293 293 292 288 292 291 291 294 293 293 293 292
296 296 297 298 297 297 293 292 293 291 294 292 294 296 297 298 298 300 296 298 297 297 299 299 298 296 295 295 292 291 291 290 291 292 293 293 293 293 292 294 293 292 292 292
297 296 297 297 295 296 296 295 295 294 294 295 295 300 300 297 300 297 296 296 298 300 297 297 298 296 294 294 293 291 290 290 290 292 293 293 294 293 291 289 292 292 293 292

GFSNW_925_thetae_111.txt.gz
Theta_e
303 302 302 305 305 307 307 310 306 309 307 306 306 304 311 309 311 311 312 312 312 313 313 314 314 315 314 313 313 315 313 314 312 314 314 313 312 313 313 311 316 315 312 314
303 303 303 304 306 306 309 308 308 310 309 307 303 311 311 311 312 311 312 314 313 313 314 314 313 313 312 313 314 314 312 313 307 310 309 311 312 312 313 310 309 310 311 312
303 303 303 303 308 307 310 307 305 309 305 306 311 312 313 313 310 311 311 312 311 313 312 312 313 313 312 312 313 311 310 312 311 313 312 311 313 312 312 310 306 309 310 311
303 303 303 303 308 309 311 304 304 306 305 308 308 310 311 313 313 310 310 311 310 311 312 311 312 312 311 312 313 311 310 311 310 310 310 311 311 310 310 311 311 311 309 309
303 303 303 302 306 309 307 306 306 304 305 307 309 309 311 312 312 311 311 310 310 309 310 310 311 310 309 311 310 311 309 308 309 305 308 309 309 308 309 309 311 310 310 310
302 303 303 302 303 307 306 307 305 304 305 306 307 308 309 311 311 310 309 309 309 310 310 308 307 306 306 307 308 308 309 307 305 306 307 307 304 305 308 308 307 310 311 310
298 303 303 303 302 305 306 305 305 305 307 306 307 309 309 309 309 310 309 308 309 308 305 304 305 305 305 306 307 305 308 307 304 305 306 304 303 306 306 307 307 307 307 306
298 300 303 303 303 303 303 302 304 303 306 304 307 308 308 307 306 306 308 308 306 304 306 306 305 306 308 308 307 306 306 307 305 306 307 305 305 306 305 306 304 305 307 307
303 297 301 303 303 302 304 302 303 303 303 302 305 305 307 305 304 306 307 305 305 306 306 305 308 304 305 307 308 303 306 305 306 307 310 308 302 304 305 305 300 302 304 304
303 302 297 301 303 303 303 302 301 305 304 302 303 303 305 304 305 303 305 306 307 304 305 306 304 303 305 303 306 305 306 306 307 307 308 307 305 303 305 302 300 305 305 304
304 303 301 297 301 303 302 303 301 301 300 300 304 304 305 304 303 303 303 303 304 305 305 304 303 304 303 304 303 304 305 304 306 305 308 308 303 305 303 301 304 305 305 305
306 304 303 300 297 299 302 302 302 301 299 299 304 304 304 304 304 304 303 302 304 304 304 302 301 303 301 301 301 301 303 304 305 306 307 303 302 302 302 301 302 304 305 304
307 305 303 303 298 297 298 302 302 301 299 299 302 302 302 301 302 303 302 301 303 304 301 302 303 306 301 303 300 302 302 300 301 303 301 302 303 302 301 301 301 302 302 303
308 307 305 303 302 297 297 301 302 301 300 301 301 300 300 299 299 300 301 302 302 302 300 303 303 304 301 301 302 300 301 302 301 300 302 301 301 300 299 300 299 300 300 301
308 308 305 304 303 299 298 301 300 300 300 301 300 300 297 297 298 298 299 300 300 300 301 301 303 301 303 301 300 304 302 304 303 304 303 300 300 300 301 302 301 300 300 300
308 308 307 304 303 301 301 300 298 297 299 297 299 298 297 297 298 298 298 298 298 299 300 300 300 301 303 301 301 301 301 302 303 303 301 299 299 300 301 301 300 300 300 299
307 308 307 305 303 302 300 302 299 298 298 297 298 298 296 297 297 296 296 297 297 298 299 299 300 301 302 300 302 303 301 300 300 299 299 300 300 301 299 298 298 300 300 299
305 307 307 305 303 300 300 299 299 299 299 297 297 300 298 296 297 298 295 297 297 296 297 299 302 299 298 302 302 301 301 300 300 300 298 299 300 300 299 299 297 298 297 296
304 306 305 303 299 299 299 298 297 298 298 299 300 300 301 295 297 296 295 296 300 296 300 300 298 299 302 302 302 301 300 300 301 300 299 299 299 298 297 297 296 296 296 295
305 303 301 300 299 298 297 297 295 292 295 292 297 294 299 296 297 299 298 297 300 302 300 296 301 301 300 300 300 299 299 297 296 298 299 299 297 296 296 296 295 295 294 294
302 300 299 298 297 296 295 298 299 299 301 297 297 294 295 294 297 298 298 295 301 301 301 300 300 300 300 299 298 296 294 293 293 295 295 296 296 296 296 295 295 293 294 293
301 300 297 296 295 297 300 300 298 299 301 295 296 295 294 294 293 296 296 296 298 300 293 298 299 297 297 297 295 294 292 292 291 291 291 291 292 292 292 292 292 293 295 294
300 298 297 298 298 300 301 298 299 298 294 291 291 293 294 293 294 296 296 299 298 292 290 295 295 295 296 295 292 292 290 289 290 290 292 293 292 292 292 291 293 293 294 294
298 299 300 299 298 300 297 295 293 294 293 292 294 293 294 294 295 296 295 297 296 292 297 296 294 296 297 293 291 289 290 290 289 287 291 291 289 290 292 293 293 293 293 293
294 297 300 299 296 287 287 291 290 289 293 293 292 292 294 292 296 298 296 295 294 293 296 296 294 297 295 294 292 290 290 290 290 291 290 287 290 289 291 294 294 293 293 293
296 297 297 297 297 297 290 284 288 288 291 289 291 294 294 296 295 299 295 291 292 295 293 294 293 296 295 294 293 292 291 290 290 290 291 292 292 291 293 294 294 293 293 292
295 296 295 294 286 288 289 291 292 291 291 292 293 298 296 295 297 297 293 292 296 294 293 290 295 295 295 293 292 292 292 291 291 291 291 291 293 293 291 290 294 293 293 293

GFSNW_925_thetae_117.txt.gz
Theta_e
302 302 302 304 306 304 304 305 306 307 306 305 301 302 310 309 310 309 310 310 311 312 310 312 313 312 311 310 311 314 311 310 310 313 311 310 311 311 309 309 310 309 308 311
302 302 301 304 307 305 306 305 305 307 306 306 301 309 310 310 310 310 311 312 311 311 312 312 312 312 311 311 312 311 310 310 306 309 309 310 313 310 309 306 306 309 309 307
303 302 302 304 307 308 308 302 305 304 301 301 307 310 311 311 309 309 309 310 309 310 310 309 312 312 311 311 311 311 308 308 308 306 307 309 312 310 309 309 305 308 308 307
303 303 302 303 307 309 308 299 302 304 304 306 307 308 310 311 311 309 308 308 308 309 310 310 311 311 311 311 311 309 307 308 306 306 307 308 309 309 309 310 311 311 307 307
301 303 303 302 306 307 305 304 303 300 302 303 307 306 310 310 310 309 309 308 308 308 309 308 308 309 309 309 309 310 305 306 306 303 305 306 308 307 308 309 311 311 311 312
298 302 303 302 303 305 304 302 302 299 301 303 305 305 308 309 309 309 308 308 307 308 308 306 306 305 303 306 308 307 306 305 303 305 303 304 303 303 305 306 306 309 310 309
301 298 302 302 302 303 304 303 302 303 303 303 304 306 307 308 308 309 308 306 307 306 304 303 302 303 304 304 304 303 304 304 302 303 302 299 300 301 303 305 305 305 306 306
304 299 298 302 302 302 302 302 302 300 302 301 304 306 306 305 304 306 305 306 303 302 303 302 302 302 306 306 305 304 302 304 303 303 304 302 302 304 303 304 302 302 304 304
306 304 298 298 302 302 301 300 302 300 298 298 303 304 304 302 302 302 305 303 302 302 301 302 304 300 303 306 306 301 302 302 303 305 308 303 300 302 303 302 299 299 301 301
306 305 303 298 297 302 302 301 301 302 300 298 301 301 302 300 300 300 300 304 305 300 301 303 302 301 301 303 304 305 305 303 306 306 307 305 302 302 303 304 300 301 302 303
307 306 305 303 298 297 302 302 302 300 297 297 302 302 303 301 300 300 298 300 300 301 303 303 301 301 300 301 300 302 304 303 305 304 306 305 301 302 303 300 299 303 302 302
308 307 306 305 303 298 298 302 302 302 298 298 301 302 302 301 300 298 299 298 300 300 300 300 298 302 298 299 300 298 302 301 303 304 304 301 300 300 300 299 299 300 300 300
308 308 307 305 304 303 298 300 301 301 297 297 298 300 300 300 300 301 302 298 300 301 297 298 299 303 298 301 298 299 299 297 301 301 301 301 301 300 299 300 299 299 297 297
307 307 307 306 305 303 301 301 300 301 298 300 299 299 299 298 299 299 300 300 300 299 298 301 300 303 299 299 299 298 299 298 298 298 299 299 299 298 297 297 296 296 296 296
305 307 306 307 305 304 301 298 298 300 300 301 300 298 297 297 298 298 299 300 298 299 301 300 302 299 300 298 298 299 298 300 300 301 298 298 300 296 296 298 298 298 296 297
305 306 306 306 306 304 301 299 297 298 298 297 300 296 296 297 297 297 297 297 296 297 299 299 298 297 300 300 301 300 298 298 298 300 298 299 299 299 297 296 297 297 295 296
302 305 305 306 305 304 300 299 299 299 299 297 299 299 296 296 296 295 295 296 295 297 298 299 299 300 301 300 303 302 300 299 299 298 297 299 299 299 297 296 296 296 296 297
302 303 304 305 304 302 300 299 298 299 299 296 296 299 299 296 296 297 293 295 295 295 297 296 299 299 298 302 302 301 300 299 299 298 297 297 296 295 295 295 295 295 295 294
302 303 303 303 301 299 299 297 297 297 297 296 298 298 296 294 296 295 295 294 297 294 299 297 298 299 302 302 301 300 299 298 298 296 294 293 294 293 293 293 294 294 294 293
303 302 302 298 298 297 297 296 294 291 292 291 298 294 298 294 295 297 296 295 298 298 299 296 299 300 299 299 298 297 297 295 292 293 294 293 292 291 292 292 292 292 292 291
302 299 296 297 296 296 294 298 297 297 298 296 296 293 293 292 295 296 295 293 298 301 298 300 301 300 299 298 297 295 292 290 289 290 290 289 289 289 291 291 290 290 291 291
300 299 297 296 295 297 299 295 297 299 301 294 294 294 293 293 291 296 294 295 298 299 294 300 299 296 296 295 295 293 290 289 288 290 289 290 290 291 290 289 289 291 292 292
299 298 295 297 295 300 299 297 299 299 292 290 291 292 292 291 292 293 294 298 298 291 295 297 295 294 294 294 293 292 291 290 290 291 292 291 291 292 291 290 292 293 292 293
295 298 297 296 296 298 295 293 292 292 289 289 291 290 292 292 293 293 297 295 294 298 298 296 293 293 294 294 292 292 293 292 290 290 292 291 291 290 292 291 293 292 291 294
296 297 296 293 292 289 292 289 291 290 291 292 292 291 292 291 294 296 295 298 299 296 297 294 289 292 294 293 293 293 292 292 292 292 291 291 291 290 290 294 294 292 292 292
295 296 296 293 296 294 294 292 290 289 291 287 290 289 290 292 292 298 300 299 298 296 291 289 289 293 293 293 292 291 293 293 293 293 293 293 292 291 292 292 292 293 292 291
293 294 293 289 288 292 291 294 293 290 292 295 293 294 295 290 294 295 294 293 292 291 289 287 288 288 293 291 291 292 292 292 292 292 293 292 293 292 289 288 293 293 293 292

GFSNW_925_thetae_120.txt.gz
Theta_e
302 302 301 304 305 304 304 304 305 307 306 304 299 302 309 309 309 308 310 310 310 311 309 311 312 310 311 309 310 313 310 307 309 312 310 309 310 310 308 308 308 308 308 309
303 302 301 302 306 303 305 304 304 307 305 304 300 308 309 309 310 309 311 311 311 310 311 312 311 312 310 310 311 310 309 309 305 308 308 310 312 309 307 305 305 308 308 305
303 302 302 302 306 307 306 301 304 303 300 300 307 309 310 310 308 309 308 309 308 309 310 308 311 311 311 310 311 310 307 306 307 305 306 309 312 310 307 308 304 307 307 306
302 303 302 302 307 308 305 298 302 303 303 305 306 306 309 310 309 308 306 308 307 309 310 309 311 310 310 309 311 308 305 306 305 306 305 307 309 310 308 308 309 310 307 305
298 302 302 302 305 309 304 302 303 298 301 302 306 304 308 309 309 308 308 307 307 307 308 307 308 308 308 308 309 309 304 305 305 301 305 304 307 306 306 308 310 310 310 311
299 300 302 302 302 305 303 301 301 298 300 302 303 303 307 308 308 307 307 307 306 307 307 305 304 303 302 305 307 306 306 305 303 304 302 303 302 303 305 306 305 308 310 309
303 297 301 302 302 303 304 303 301 301 302 302 303 304 305 306 307 308 307 305 306 305 302 301 301 301 303 304 304 302 303 303 301 302 301 298 300 300 302 303 303 304 305 305
305 302 297 300 302 301 303 302 301 299 300 299 303 305 305 304 304 305 304 305 302 301 302 301 301 300 305 305 301 303 301 302 302 301 302 301 301 302 302 304 302 301 303 303
306 304 301 297 300 302 301 301 302 298 298 296 301 303 303 301 300 301 304 302 301 299 299 301 302 299 302 306 305 300 301 300 302 303 306 302 299 301 301 302 298 298 300 301
307 306 304 301 297 300 302 301 301 301 298 296 300 300 301 299 299 298 299 303 304 299 300 302 301 300 300 303 304 305 305 303 305 305 306 304 301 301 302 302 300 300 301 300
307 307 306 305 302 298 301 302 301 300 297 297 301 301 302 300 298 299 297 299 299 300 302 302 300 301 299 301 298 302 304 303 304 305 306 304 300 301 304 298 298 300 299 299
308 307 307 306 305 303 300 300 301 301 298 298 300 301 301 301 299 297 297 297 299 300 299 299 297 302 296 298 300 297 301 301 302 303 303 300 300 300 300 298 298 298 298 298
307 308 307 306 306 305 303 301 300 300 297 297 298 300 299 299 300 300 301 298 299 299 297 297 299 302 297 300 298 298 297 296 300 301 300 300 299 298 298 298 298 297 297 295
307 307 307 306 306 305 303 300 299 300 298 301 299 299 298 298 298 299 300 299 299 298 297 300 300 302 298 299 298 297 297 297 298 298 298 299 300 298 297 297 297 297 295 296
305 307 306 306 305 305 302 297 300 299 299 301 299 297 297 297 297 298 299 299 298 299 301 300 303 299 300 297 298 299 296 299 299 300 297 298 299 298 297 297 297 297 296 296
303 305 305 305 305 305 301 298 297 299 299 295 299 295 296 297 297 297 297 297 296 297 299 300 298 297 300 300 302 301 298 297 298 300 298 298 298 297 296 295 295 296 295 295
301 302 304 304 304 304 301 300 299 299 299 296 298 296 295 296 295 294 294 295 294 296 297 298 299 299 301 300 303 302 299 300 299 297 296 296 297 296 295 293 294 295 295 295
301 303 303 303 304 302 301 299 298 298 298 295 292 294 296 295 295 296 292 295 294 295 296 296 299 298 298 302 302 301 300 298 298 297 296 295 295 293 293 292 292 293 294 294
301 303 303 302 301 300 298 297 297 297 296 296 298 297 295 293 294 293 294 293 296 293 298 297 297 299 301 301 300 301 299 298 296 294 292 292 292 292 290 290 291 292 292 292
303 302 301 300 298 297 297 296 294 292 291 291 299 296 298 293 294 295 295 294 296 292 297 295 298 299 298 298 297 297 296 294 292 292 293 292 292 291 291 290 290 290 290 290
302 299 296 297 296 296 294 295 297 297 299 296 296 296 294 292 295 296 295 294 298 300 294 300 298 299 298 296 296 294 292 291 289 289 290 289 289 289 289 291 290 290 290 290
300 299 297 296 294 297 296 294 297 299 300 295 294 295 293 293 291 296 295 295 297 300 293 299 299 295 295 295 296 295 291 290 289 290 289 290 291 291 290 290 290 291 291 291
299 297 296 293 294 298 297 293 298 299 296 290 292 293 293 292 292 293 294 298 298 291 297 297 295 294 293 293 293 292 292 291 290 291 292 292 292 293 291 290 292 292 291 292
296 295 297 294 295 292 292 293 292 291 289 288 290 290 292 292 294 294 297 296 294 298 299 295 291 291 292 292 291 291 292 291 289 291 292 291 291 291 292 293 293 292 291 293
295 296 296 291 291 287 291 288 290 288 289 290 291 290 292 291 293 296 296 298 299 298 295 292 288 291 292 292 291 291 291 291 290 292 292 292 291 291 291 292 293 292 290 289
293 294 293 291 291 290 289 290 292 288 291 289 291 290 288 292 295 298 299 299 297 294 292 289 287 291 291 290 290 290 292 291 291 291 292 292 291 291 292 292 291 291 290 290
292 294 292 291 293 293 290 292 292 290 293 295 292 292 294 290 295 295 292 294 293 291 289 287 289 289 289 288 289 290 291 290 291 291 291 291 292 291 289 287 291 291 291 291

GFSNW_925_thetae_123.txt.gz
Theta_e
303 302 302 302 304 304 304 303 305 307 306 304 299 301 308 308 309 308 309 309 309 309 308 310 311 310 311 309 309 312 309 306 309 312 309 308 309 309 307 310 309 308 309 311
303 303 302 302 304 304 305 303 303 305 303 305 300 306 309 308 309 308 310 311 310 309 310 312 311 311 310 309 310 310 308 308 307 309 308 309 311 309 306 304 305 308 309 306
301 303 302 302 307 307 306 300 303 302 299 299 305 308 309 309 307 308 307 308 308 308 309 307 310 311 310 309 310 310 306 306 307 307 306 309 312 310 306 308 308 308 308 307
298 302 302 302 308 307 305 297 301 301 301 305 305 305 308 309 309 306 305 307 306 308 309 308 309 309 310 309 310 306 304 306 304 305 304 307 309 310 308 308 308 311 307 305
298 300 302 302 305 306 303 302 302 297 299 301 305 304 307 307 308 307 307 306 307 306 306 306 307 307 307 308 308 308 303 305 304 300 304 304 306 305 306 308 309 307 309 310
303 298 301 302 302 305 302 299 300 298 299 301 302 302 306 307 306 307 306 305 304 307 306 304 302 301 301 304 306 305 304 304 302 303 301 302 302 302 304 305 305 308 310 308
305 301 298 302 302 302 303 302 300 301 301 301 302 304 305 306 306 307 306 305 305 303 299 299 299 299 300 301 300 301 303 302 301 302 300 298 299 299 302 304 304 304 305 304
306 304 299 298 302 301 302 302 300 298 300 299 302 303 304 303 302 304 303 304 301 299 300 299 299 300 305 302 299 303 300 302 302 301 301 300 301 302 302 303 302 300 302 302
307 306 304 299 298 302 301 301 302 297 296 296 301 302 302 301 300 300 304 301 300 298 298 300 300 299 302 306 304 299 300 299 302 302 306 302 298 300 300 301 298 298 300 300
307 306 305 304 300 299 302 301 300 300 298 296 299 300 301 297 297 297 298 303 303 298 299 301 300 299 299 303 304 305 304 302 305 305 305 304 299 300 300 301 300 298 300 299
307 307 306 305 305 303 301 301 301 299 296 296 300 300 300 299 297 298 296 299 298 299 301 300 300 300 298 299 298 302 303 303 304 304 306 303 299 301 304 298 298 298 298 299
307 307 307 306 305 305 303 300 301 301 298 297 299 300 300 300 299 296 296 297 298 299 298 298 297 301 296 297 299 297 301 301 302 302 303 299 300 302 299 298 298 297 297 298
308 307 307 306 305 305 304 302 300 300 297 297 297 299 299 299 300 300 301 297 298 298 296 296 298 301 297 299 298 297 296 296 300 300 298 300 299 297 298 298 296 295 296 296
307 307 306 305 304 305 303 300 300 300 297 300 298 298 298 298 298 299 299 299 299 297 297 299 299 301 297 298 298 297 297 296 297 298 298 299 297 298 297 296 296 295 295 295
306 306 306 305 305 304 303 298 299 299 299 301 298 297 296 297 297 298 299 299 298 298 300 300 302 298 298 297 297 298 295 297 299 300 297 300 300 298 297 296 295 294 294 295
303 303 304 304 304 304 303 297 297 299 300 296 299 294 295 296 297 297 296 297 295 296 299 299 297 297 299 300 302 300 297 296 297 300 297 296 297 296 296 294 294 293 294 294
302 302 304 304 303 303 302 300 299 301 300 295 297 295 294 295 295 293 293 294 293 295 296 298 297 298 299 299 302 301 298 299 299 297 296 296 296 295 293 293 292 292 293 294
301 302 303 303 302 302 300 299 299 299 298 294 291 294 295 295 294 295 291 294 293 294 296 295 298 296 296 301 299 300 300 297 297 296 294 294 293 292 292 292 290 291 292 291
301 303 302 302 301 300 298 297 297 297 297 295 298 298 295 293 293 293 294 292 295 292 296 296 297 298 300 300 299 300 299 298 297 293 291 291 291 290 290 289 290 290 291 290
302 302 302 298 298 297 297 296 294 292 292 292 299 296 298 293 294 295 295 294 296 293 297 294 298 299 297 297 297 296 296 294 292 294 294 292 291 290 290 290 289 288 289 290
302 300 299 296 296 296 293 295 296 295 298 297 296 296 295 291 295 296 295 294 296 301 295 300 300 299 298 295 294 292 291 291 290 290 289 288 288 288 289 290 290 290 291 290
301 299 297 296 295 297 294 292 296 297 296 294 296 295 293 292 291 296 295 295 297 299 293 299 299 295 295 294 294 293 291 292 291 291 289 290 290 291 290 290 290 291 292 291
300 297 295 295 293 298 296 291 297 298 297 289 293 292 292 291 292 293 295 299 299 291 298 298 294 294 293 292 292 292 292 292 291 291 292 292 292 292 291 291 292 292 291 292
296 297 298 295 296 291 292 291 291 291 288 288 292 289 291 291 293 293 293 296 295 298 298 295 292 292 292 291 290 290 291 290 289 289 291 291 290 290 291 292 292 291 290 291
296 296 297 295 291 289 291 290 291 290 289 290 291 289 292 292 294 296 296 297 299 298 294 292 289 290 291 291 290 290 289 289 289 291 290 290 290 289 289 291 291 291 290 290
294 293 294 292 293 291 291 288 288 288 290 288 291 290 291 294 296 297 298 298 296 293 290 288 287 290 290 289 289 289 290 290 290 290 290 290 289 289 290 291 290 290 290 289
291 291 292 292 292 293 291 291 292 291 295 297 295 295 296 290 295 295 291 294 292 290 287 285 288 289 289 288 288 288 288 288 289 289 289 289 290 290 288 287 290 290 290 290

GFSNW_925_thetae_129.txt.gz
Theta_e
300 302 302 302 304 305 305 312 320 309 307 317 316 317 314 310 312 312 313 313 313 313 313 313 313 314 315 313 313 314 313 315 317 316 314 313 315 315 314 316 318 316 317 317
299 302 302 302 307 305 308 314 314 309 309 320 316 313 312 312 312 312 313 314 313 312 314 315 314 315 313 313 314 315 313 316 318 316 315 314 316 315 314 313 314 318 318 314
299 300 302 304 307 305 307 312 321 314 312 312 314 313 313 314 311 312 311 312 312 313 313 313 315 315 314 313 313 310 312 314 317 317 317 316 316 316 314 314 318 316 315 313
302 299 302 301 306 306 306 311 314 309 315 312 312 312 312 312 312 311 310 311 312 311 313 313 315 315 315 314 311 312 312 314 311 311 310 312 315 316 315 315 316 316 313 312
305 299 300 301 303 306 308 313 312 308 310 309 311 308 311 310 311 310 310 311 310 310 310 310 313 313 315 314 313 313 310 312 309 311 307 308 309 309 314 315 314 314 314 313
306 303 298 301 301 303 308 306 305 308 307 310 310 310 310 310 310 310 309 310 309 309 309 309 309 309 310 311 312 312 310 311 311 310 306 307 308 308 308 309 311 312 313 311
307 305 302 299 301 302 306 306 307 311 309 309 309 307 309 310 310 310 309 308 308 308 306 307 307 308 309 309 309 309 310 310 310 313 309 311 305 305 307 308 308 309 309 309
307 306 305 302 300 301 304 303 307 308 308 307 307 307 308 308 308 308 308 307 307 306 306 306 307 308 308 307 307 309 308 309 311 313 310 310 305 303 306 308 306 306 308 308
307 307 306 305 303 301 303 301 302 306 308 307 306 308 308 308 308 307 307 305 305 305 307 306 306 307 308 311 309 306 307 308 310 309 310 308 307 305 305 306 306 305 305 305
307 307 306 306 305 303 302 302 301 305 308 303 305 308 308 306 306 306 307 307 306 304 308 306 305 306 305 309 309 310 309 309 310 310 311 310 305 305 305 307 306 304 305 305
306 307 307 306 306 305 302 302 302 304 308 304 302 303 305 305 305 307 306 307 306 307 308 306 307 306 305 305 307 309 310 311 311 310 311 313 305 304 307 306 305 304 303 302
305 307 307 306 306 306 304 305 302 301 305 304 300 300 299 300 301 304 305 305 306 307 307 306 306 306 305 307 309 304 308 309 310 310 311 305 305 304 303 303 302 302 300 300
305 306 306 306 306 305 304 303 301 301 305 304 303 303 299 298 298 299 307 305 303 304 303 306 307 307 306 307 306 305 304 304 306 306 306 306 305 303 302 301 300 299 298 298
306 306 306 306 305 304 303 302 301 302 304 309 305 298 299 298 298 298 300 302 302 302 304 307 307 306 303 306 304 304 304 303 305 306 304 303 302 303 300 300 299 298 298 298
307 306 306 306 305 304 303 300 300 301 303 309 305 299 297 297 298 299 300 302 304 306 307 308 308 306 303 303 303 305 302 304 305 306 305 306 303 300 299 298 298 298 298 298
307 305 306 306 305 304 303 304 298 301 300 305 308 298 299 298 299 299 300 301 303 305 306 307 306 303 305 307 307 307 304 301 302 304 303 302 300 299 298 298 297 297 297 297
307 305 306 305 305 303 303 304 299 301 300 304 307 305 298 297 298 299 300 300 302 304 305 305 305 304 304 307 307 306 304 302 302 302 300 299 299 299 297 297 296 295 296 296
306 304 304 304 304 302 302 300 300 300 299 300 308 305 300 296 300 301 297 302 302 302 304 302 304 303 304 306 306 304 303 303 301 298 297 298 297 297 297 296 296 296 297 297
304 304 304 303 301 302 300 298 298 298 299 305 303 308 310 297 299 299 299 300 303 299 303 303 302 305 306 306 305 304 302 300 299 297 296 296 296 296 296 296 296 295 296 296
303 303 302 303 299 298 298 297 299 300 300 299 303 301 303 300 300 301 302 300 303 305 303 299 300 303 304 303 302 303 301 298 298 298 297 296 296 295 294 294 294 294 294 294
303 301 301 296 297 296 298 301 301 301 301 300 300 300 301 297 303 304 301 303 302 305 303 302 303 303 302 301 301 299 296 296 295 296 295 294 294 293 293 294 294 294 294 294
301 299 297 296 297 299 301 302 299 299 302 299 299 298 299 297 297 302 299 303 299 304 299 300 302 303 298 298 298 295 295 295 295 294 295 294 294 294 293 293 293 293 293 293
299 298 297 298 298 302 303 302 300 301 299 297 296 298 298 296 297 300 301 301 302 297 299 301 302 299 296 296 296 295 295 294 295 295 294 294 294 293 293 293 293 292 292 292
296 299 300 303 301 302 303 301 302 298 299 297 299 297 299 297 299 299 301 300 297 299 301 302 301 298 297 296 296 295 294 295 294 293 293 293 292 292 291 291 291 291 291 291
297 298 303 301 300 296 297 296 296 294 297 296 296 297 298 298 298 299 299 298 300 300 302 302 299 297 296 295 295 295 294 293 293 292 292 292 291 291 291 291 291 291 291 291
295 296 299 297 299 296 296 297 297 294 296 295 297 298 300 301 301 300 300 301 301 302 301 299 296 295 294 294 294 293 293 292 292 292 291 291 291 291 291 291 291 291 290 290
296 297 296 297 300 298 298 298 296 294 297 301 299 301 302 296 300 300 299 300 301 300 297 296 295 295 294 294 293 292 292 291 291 291 291 291 291 291 290 290 290 290 290 290

GFSNW_925_thetae_132.txt.gz
Theta_e
299 301 302 302 307 305 307 312 323 311 309 319 317 319 314 311 313 312 313 313 313 313 313 313 313 315 314 313 314 314 313 313 314 315 313 312 314 315 313 314 317 313 314 313
301 299 302 304 307 305 309 316 315 312 311 322 316 313 313 313 313 313 314 314 313 313 313 315 314 315 313 313 314 314 312 315 312 314 314 313 314 314 314 312 313 316 314 311
304 299 301 301 306 306 306 313 321 316 314 312 314 314 314 314 312 312 312 313 312 313 314 313 315 315 314 313 312 311 311 313 315 313 316 315 314 314 313 312 311 314 313 309
306 301 299 301 304 306 308 312 315 310 317 312 312 312 312 313 313 311 310 312 312 311 313 314 314 315 314 314 311 312 311 313 307 311 311 312 314 315 314 313 313 314 312 311
307 305 299 300 301 304 310 312 312 308 310 310 311 308 310 311 311 310 310 311 310 310 310 310 314 315 314 315 313 313 310 311 309 307 308 307 308 308 313 313 313 312 312 311
307 306 304 300 301 305 309 308 308 307 308 310 309 309 310 311 310 310 309 309 309 310 309 308 308 308 308 309 312 311 310 309 308 310 306 306 306 306 307 311 311 312 312 310
307 307 306 304 301 302 306 306 307 312 311 308 309 308 310 310 310 310 309 308 308 307 306 307 306 306 308 307 307 307 309 309 307 308 308 306 305 303 305 307 308 307 308 308
307 307 306 306 304 302 304 304 306 309 310 306 307 307 308 308 307 307 309 307 306 305 306 306 306 307 307 307 306 308 306 307 308 307 308 309 303 302 306 306 306 305 306 307
306 307 307 306 306 303 304 303 302 306 308 306 306 307 308 308 308 307 307 305 305 305 306 305 306 306 309 309 308 306 307 307 307 306 308 309 306 304 304 305 303 304 303 304
306 306 307 306 306 305 303 303 302 305 308 303 304 307 308 306 305 307 307 306 306 304 306 306 304 304 304 309 309 307 306 306 306 307 308 309 304 303 304 304 305 303 304 303
307 307 307 307 306 306 304 305 303 304 308 303 303 303 305 305 305 306 306 306 305 305 307 305 305 304 302 304 307 307 307 307 306 307 310 307 303 303 305 303 303 302 302 300
307 307 306 307 306 305 305 306 304 301 304 304 301 301 300 301 301 303 305 304 305 306 306 304 303 304 302 303 305 304 306 307 307 307 308 304 303 302 301 300 300 301 300 299
308 307 306 306 306 305 304 304 302 303 304 304 302 302 299 299 300 300 306 303 303 304 301 304 305 305 304 305 303 304 303 304 303 304 304 303 302 301 299 299 299 298 298 297
308 307 306 306 305 304 303 302 301 302 304 306 303 299 299 298 299 299 301 302 302 302 302 305 305 305 302 303 302 301 301 302 303 303 303 301 301 300 298 298 298 298 297 298
309 307 305 306 305 304 303 301 300 301 303 307 304 300 298 298 298 299 300 302 303 304 305 305 306 304 302 301 301 301 299 301 302 303 301 300 300 298 298 297 297 297 297 297
309 308 306 306 306 304 303 303 299 301 300 303 306 298 299 299 299 300 301 302 302 303 304 305 304 302 303 304 304 304 300 299 301 301 299 298 297 297 297 297 297 296 296 296
309 308 306 306 305 304 303 304 301 300 300 303 304 302 297 297 298 299 299 300 300 301 303 302 303 303 302 304 305 305 302 300 301 299 297 297 297 297 296 296 295 295 295 296
309 307 305 305 305 303 302 301 302 301 300 300 302 303 299 296 299 299 297 300 300 300 301 300 302 301 301 304 304 303 301 300 299 296 295 296 295 295 295 295 295 295 295 295
308 305 305 303 302 302 302 299 299 299 300 302 300 304 307 296 298 298 298 298 301 297 300 301 301 302 303 303 303 302 301 300 297 295 294 294 294 294 294 295 294 293 292 293
306 304 303 303 300 300 298 297 299 298 298 297 300 299 301 298 299 300 299 298 300 299 300 297 300 302 301 302 301 301 298 296 294 294 294 294 294 293 293 293 292 292 292 293
303 302 300 296 297 297 298 301 301 300 300 299 298 299 299 296 302 302 299 301 299 301 299 300 302 301 300 299 297 296 294 294 294 294 293 292 292 292 292 292 293 293 293 292
302 299 296 296 297 298 301 301 299 299 300 299 299 298 298 296 296 301 298 300 299 300 298 300 301 297 297 297 295 293 292 293 292 294 293 294 293 293 293 292 292 292 292 292
299 297 295 298 297 302 302 302 297 298 297 296 296 297 296 294 296 299 300 301 301 295 299 300 296 296 294 293 293 292 293 293 293 293 293 293 293 292 292 292 292 292 292 291
297 298 299 302 299 300 300 300 298 296 297 296 297 295 297 296 298 299 302 299 297 299 300 296 294 295 294 293 293 292 292 293 292 292 292 292 291 291 291 291 291 291 290 290
297 297 303 301 298 294 294 293 293 293 296 295 295 295 297 298 299 298 299 298 299 300 297 295 293 294 293 293 293 293 293 292 291 292 291 291 291 291 290 291 291 291 290 290
295 296 301 299 296 296 293 295 295 294 295 293 295 297 300 300 301 299 300 301 298 298 295 292 292 292 292 292 292 292 292 291 291 291 291 291 290 290 290 290 291 290 290 289
296 297 296 295 296 294 296 296 294 294 296 299 299 300 301 297 300 299 297 297 300 297 293 290 291 292 292 291 291 291 291 290 290 290 290 290 290 290 290 288 289 289 289 289

GFSNW_925_thetae_135.txt.gz
Theta_e
304 299 301 304 306 305 309 309 312 311 308 309 308 305 312 310 312 311 312 312 312 312 312 312 313 315 313 312 312 314 311 313 313 314 312 312 313 314 308 310 314 310 310 311
305 300 300 302 305 306 307 309 307 311 309 307 305 311 312 311 312 312 313 313 312 311 312 313 313 313 312 312 312 313 312 311 309 310 310 310 312 312 313 310 309 311 309 309
306 303 299 301 304 306 306 306 309 310 305 306 309 312 312 312 310 311 311 312 311 312 312 312 314 314 313 312 311 311 310 310 309 306 308 310 312 312 312 310 307 310 311 307
307 305 301 301 301 304 309 305 307 306 309 308 309 310 311 312 312 310 309 311 309 309 313 313 314 313 313 313 311 311 308 310 306 309 310 310 312 313 311 311 311 310 310 309
307 306 305 302 302 305 309 308 307 304 305 307 309 307 309 310 309 309 309 309 308 307 309 310 313 313 312 313 312 311 307 308 305 305 306 306 307 307 311 311 312 311 311 311
307 307 306 305 302 305 307 306 306 303 306 306 306 306 308 309 308 308 307 307 307 308 308 307 307 305 305 306 310 309 307 305 304 308 305 305 302 303 305 311 311 310 311 309
306 307 306 306 303 303 306 305 304 306 308 304 306 307 308 309 308 309 307 306 308 307 305 305 303 303 304 304 304 304 307 306 303 304 304 300 301 302 304 307 309 308 307 305
306 307 306 306 306 302 303 302 304 303 306 302 305 307 307 306 306 306 307 305 304 303 305 303 304 304 304 305 303 304 304 303 304 303 305 302 303 302 304 304 305 304 304 303
307 306 307 306 306 305 304 302 303 302 303 303 302 305 306 305 304 305 305 304 303 303 304 302 303 305 305 307 307 303 305 303 303 303 305 306 304 303 304 303 301 302 302 301
307 306 306 307 306 306 304 304 303 304 303 301 303 304 305 303 302 304 305 305 305 302 302 303 301 301 303 307 307 305 303 303 304 305 306 305 303 303 303 302 300 301 301 301
307 307 306 306 306 306 305 305 303 303 302 302 301 302 304 302 301 303 303 303 303 302 304 302 301 301 300 302 303 303 303 303 303 303 307 305 302 303 302 300 300 300 300 299
308 307 307 306 306 305 304 306 304 301 301 302 300 301 300 300 300 301 302 303 303 302 302 300 299 302 299 299 303 302 305 304 305 304 305 302 301 302 300 299 299 299 298 297
307 308 307 306 305 305 303 303 302 303 300 300 299 300 299 299 299 300 302 300 301 301 299 301 301 302 300 303 301 302 302 300 304 303 302 301 300 299 299 299 298 296 296 296
306 308 307 306 305 305 303 303 301 302 301 301 302 299 299 298 299 300 301 300 301 300 299 302 302 303 299 301 300 300 299 300 301 301 302 300 300 299 297 296 296 296 296 296
306 308 308 306 305 305 303 301 300 301 301 304 302 299 298 298 299 299 300 301 301 300 302 302 303 300 301 298 299 299 298 300 301 301 299 299 298 296 296 295 296 295 296 296
305 308 308 306 306 305 303 301 299 301 301 300 301 297 297 299 299 300 300 300 299 299 301 301 301 300 300 301 302 301 298 297 298 301 299 298 296 295 296 295 295 295 295 296
306 307 308 306 306 305 303 303 300 300 301 300 299 298 296 297 298 297 297 299 298 299 300 300 300 301 300 301 303 302 298 299 298 296 296 297 296 296 294 294 295 296 295 295
306 307 307 306 306 304 302 302 302 301 300 298 298 299 298 296 298 298 295 298 297 298 299 298 301 300 299 302 302 303 299 298 296 295 295 295 293 293 293 294 294 293 293 292
306 306 306 304 304 302 302 300 300 299 299 298 297 298 303 295 297 297 296 295 298 295 298 299 299 301 303 303 302 301 299 299 296 294 293 293 293 293 293 293 292 291 291 291
306 305 304 302 301 301 299 297 297 294 295 294 297 294 299 297 298 299 298 297 299 297 298 296 300 301 300 299 299 299 298 295 293 293 293 292 292 291 292 292 291 291 290 291
305 302 299 297 297 298 298 300 298 297 300 296 295 296 297 295 300 301 299 296 298 299 298 300 300 300 299 297 296 294 293 292 293 292 292 291 290 290 290 290 291 291 291 291
303 299 296 296 297 297 300 301 297 299 298 295 298 298 296 294 294 297 295 297 298 300 297 299 299 296 296 296 292 291 290 291 290 291 291 292 292 292 292 291 291 291 291 291
300 297 295 297 297 301 300 301 301 296 294 295 295 297 294 293 294 296 296 300 300 294 299 299 296 295 293 291 291 291 291 291 292 292 292 292 292 291 291 291 291 290 290 290
297 298 299 302 298 298 297 295 296 293 294 295 295 294 294 294 295 296 295 297 296 299 300 295 290 292 291 291 291 290 290 290 289 291 291 291 291 290 291 291 291 290 290 290
297 297 302 299 296 290 288 286 292 289 295 295 294 294 294 296 295 297 296 296 296 299 297 293 290 291 291 290 290 290 290 290 289 290 290 290 290 290 290 290 290 290 290 289
295 296 301 296 294 295 287 288 296 291 295 292 294 296 297 294 297 295 295 296 293 293 291 290 290 291 290 290 290 290 290 290 290 290 290 290 290 290 289 290 289 289 289 288
296 297 296 292 292 297 290 292 296 295 297 297 296 296 297 296 294 294 294 294 296 295 289 288 289 289 289 289 290 290 290 289 289 289 289 289 289 289 288 286 288 288 288 288